GFSNW_con_sbcape_024.txt.gz
CAPE
81 64 77 48 23 0 0 39 10 29 126 0 0 45 0 0 8 0 12 48 44 4 74 22 3 0 74 42 14 57 19 23 370 27 33 49 1 105 1 675 50 469 349 10
49 89 71 58 33 0 8 29 69 299 152 0 11 3 0 0 5 56 65 53 49 0 3 25 0 25 206 187 138 84 136 62 134 38 118 71 1 0 0 52 299 217 229 70
2 92 61 73 29 3 5 46 107 280 211 0 12 23 1 0 11 8 38 68 38 3 0 0 6 52 90 57 119 0 99 7 0 173 39 132 219 12 0 0 338 116 1 0
1 82 68 75 33 7 6 126 60 28 53 52 59 196 1 1 13 0 75 66 0 76 114 36 106 100 139 12 12 0 0 4 0 0 12 19 26 8 4 0 6 0 48 0
11 84 74 63 38 20 6 53 82 180 41 28 38 119 71 14 19 22 109 163 20 124 160 78 113 120 336 111 34 10 0 163 81 77 17 0 0 0 0 0 0 0 0 0
80 112 71 65 46 38 39 25 220 215 83 47 99 181 238 120 98 121 101 151 190 171 314 349 439 565 471 231 334 282 322 564 59 0 0 0 0 0 0 0 0 0 0 0
136 100 66 47 53 45 54 83 298 140 103 17 25 219 224 50 70 431 263 345 423 342 242 274 223 95 88 160 125 288 252 206 138 116 0 0 0 0 0 0 0 0 0 0
108 129 52 13 4 21 105 286 308 195 31 101 135 342 290 85 84 388 341 406 456 465 334 354 118 387 1 0 0 0 7 61 66 54 0 0 0 0 0 0 0 0 0 0
59 61 26 3 0 0 19 20 11 522 178 284 21 117 254 264 863 383 66 265 481 425 1186 1118 301 367 57 41 4 0 0 0 166 0 17 0 0 0 0 0 0 0 0 0
69 34 23 0 0 0 16 40 12 362 256 482 337 82 102 258 666 522 263 59 50 183 1038 918 1024 593 41 168 60 0 0 10 0 0 23 1 0 0 0 0 1 0 0 0
37 7 20 0 0 0 21 2 1 63 204 338 517 206 76 643 877 707 407 307 213 1161 708 890 1105 783 487 264 4 0 0 57 1 83 0 0 0 0 0 18 0 0 0 0
9 10 3 0 0 3 6 0 0 9 716 758 805 323 382 393 285 976 485 650 522 883 912 912 1397 260 12 125 259 0 75 122 421 3 21 0 0 0 0 0 0 0 0 0
32 7 1 0 1 0 0 0 0 673 1111 595 512 501 225 202 554 924 711 771 710 774 1370 1569 1315 175 346 42 534 273 5 0 76 4 0 0 0 0 0 0 0 0 0 0
26 3 0 0 2 0 1 14 10 751 860 353 621 220 169 36 182 574 807 1102 1262 1318 1278 1357 1 314 369 626 558 902 65 0 0 0 0 0 0 0 0 0 0 0 0 0
0 0 1 1 1 0 1 2 42 923 805 404 437 142 51 50 197 352 573 1106 1038 1075 679 0 1109 604 432 244 300 419 0 0 99 154 0 0 0 0 0 0 0 0 0 0
0 1 0 0 0 0 3 280 572 405 1005 994 569 56 86 71 175 217 497 734 925 911 911 696 409 1 545 139 187 0 0 0 0 0 0 0 0 0 0 0 0 0 0 0
0 0 0 0 0 4 291 74 22 0 760 848 119 24 16 182 167 280 333 433 707 685 644 283 287 7 117 6 243 0 0 0 0 0 0 0 0 0 0 0 0 0 0 0
0 0 0 0 0 0 196 0 0 0 302 583 47 1 3 16 269 113 119 673 581 115 0 5 287 0 423 227 0 0 0 0 0 0 0 0 0 0 0 0 0 0 0 0
0 0 0 0 419 613 143 0 0 187 55 33 65 0 3 0 1 1 2 148 149 0 1 173 42 3 5 3 0 0 0 0 0 0 0 0 0 1 1 0 0 0 0 4
0 22 289 129 60 0 0 3 175 130 6 84 2 0 3 0 4 3 0 3 1 2 4 1 2 0 0 0 0 0 0 1 1 0 0 1 2 1 2 2 0 0 0 0
522 300 15 5 0 4 11 9 67 38 23 2 0 7 7 0 4 8 4 6 5 1 2 8 9 1 0 1 0 1 1 0 0 0 0 2 1 4 0 0 0 0 0 0
152 82 0 0 25 0 0 7 0 12 2 2 13 3 1 3 1 3 2 1 0 1 0 8 5 0 1 0 2 1 2 2 0 0 0 0 0 0 0 0 0 0 0 0
16 0 0 0 1 2 30 2 3 3 1 0 2 1 6 4 2 2 1 1 11 5 10 2 1 1 5 4 3 1 1 3 0 0 0 0 0 0 0 0 0 0 0 1
0 0 0 0 3 3 4 2 2 0 0 0 4 3 5 2 1 2 1 1 1 7 12 2 3 5 3 2 0 0 0 0 0 0 0 0 0 1 0 0 0 0 0 0
0 1 5 6 2 1 1 0 1 0 0 0 12 9 1 3 0 7 2 4 9 4 7 5 2 1 0 1 2 0 0 0 0 0 1 0 1 0 0 0 0 0 0 0
3 2 2 0 1 1 1 0 0 1 1 2 5 7 6 2 7 17 0 19 10 7 3 1 0 0 0 3 0 0 0 2 0 1 2 0 0 1 0 0 0 0 0 0
9 8 0 0 1 3 1 0 0 0 0 2 2 4 4 3 9 4 4 11 9 0 1 0 0 0 1 5 0 0 0 0 1 3 2 1 0 0 0 0 0 0 0 0

GFSNW_con_sbcape_027.txt.gz
CAPE
50 52 71 100 61 69 16 18 5 0 0 0 6 2 0 0 0 1 0 5 5 0 1 0 0 0 102 26 80 60 0 1 39 68 0 29 2 2 8 0 0 0 0 0
98 35 92 74 80 66 19 22 56 10 0 0 0 0 0 0 0 0 0 2 7 0 3 3 0 113 103 79 70 12 64 0 0 0 0 62 14 0 0 8 0 0 0 0
102 81 3 87 66 53 32 43 46 118 36 0 0 0 0 0 0 2 0 0 20 16 5 0 3 62 90 54 0 0 37 10 0 0 0 11 20 27 10 0 0 0 0 0
90 36 16 83 74 72 52 24 12 27 10 6 0 0 0 0 3 1 0 0 7 1 0 0 73 104 10 61 0 0 0 0 0 3 36 6 11 9 2 0 0 0 0 0
102 43 35 63 66 93 47 22 27 72 12 10 1 0 0 0 1 0 0 0 0 0 7 58 31 210 88 21 0 0 0 0 0 0 0 0 0 0 0 0 0 0 0 0
83 60 26 9 70 106 44 0 6 42 21 0 0 0 0 0 0 0 0 19 52 10 127 171 213 244 159 73 1 0 0 0 0 0 0 0 0 0 0 0 0 0 0 0
113 66 20 26 84 86 25 8 34 89 36 37 0 0 0 0 0 20 15 4 27 137 49 4 1 0 12 18 0 36 0 0 0 0 0 0 0 0 0 0 0 0 0 0
102 76 25 62 60 70 21 3 47 78 50 13 0 0 0 67 94 34 257 327 199 94 131 0 3 0 0 0 0 0 0 0 0 0 0 0 0 0 0 0 0 0 0 0
43 37 61 54 12 62 39 3 9 37 66 0 0 0 1 77 65 106 76 11 13 410 400 30 16 1 0 0 0 0 0 0 0 0 0 0 0 0 0 0 0 0 0 0
70 80 98 75 13 12 14 7 25 27 54 19 1 0 0 140 148 24 4 2 35 222 0 48 21 2 0 0 0 0 0 0 0 0 0 0 0 0 0 0 0 0 0 0
69 69 76 33 5 0 1 0 0 29 16 62 140 5 96 430 103 19 0 29 11 271 19 16 238 28 0 0 0 0 0 0 0 0 0 0 0 0 0 0 0 0 0 0
48 62 37 2 17 0 0 0 0 25 16 13 133 268 241 338 48 56 3 62 10 116 175 229 12 147 0 0 0 0 0 0 0 0 0 0 0 0 0 0 0 0 0 0
92 70 36 9 3 0 0 7 64 54 14 1 46 129 48 59 189 45 15 170 258 466 382 80 158 14 0 0 0 0 0 0 0 0 0 0 0 0 0 0 0 0 0 0
34 23 11 4 0 1 0 32 16 28 3 31 133 180 53 51 295 478 546 543 672 696 308 4 0 0 24 0 2 1 0 0 0 0 0 0 0 0 0 0 0 0 0 0
20 22 16 10 23 14 20 35 3 25 8 44 36 31 77 50 187 467 624 517 530 238 0 0 10 0 78 0 0 0 0 0 0 0 0 0 0 0 0 0 0 0 0 0
17 21 48 26 3 9 28 30 0 3 0 7 13 2 73 94 169 253 513 330 298 486 46 94 1 0 0 0 0 0 0 0 0 0 0 0 0 0 0 0 0 0 0 0
18 10 1 9 4 14 26 13 1 0 2 45 36 8 7 54 47 5 69 205 125 126 56 243 0 0 0 0 0 0 0 0 0 0 0 0 0 0 0 0 0 0 0 0
4 0 4 0 0 17 50 3 0 1 61 50 41 34 44 18 63 9 0 249 0 0 0 0 0 0 0 0 0 0 0 0 0 0 0 0 0 0 0 0 0 0 0 0
1 0 0 1 30 100 58 0 0 8 7 30 0 0 8 0 0 0 0 0 0 0 0 0 0 0 0 0 0 0 0 0 0 0 0 0 0 0 0 0 0 0 0 0
0 0 67 18 20 0 0 3 0 0 0 0 0 0 0 0 0 1 0 0 0 0 0 0 0 0 0 0 0 0 0 0 0 0 0 0 0 0 0 0 0 0 0 0
5 1 0 0 0 0 0 0 0 0 0 0 0 0 0 0 0 0 0 0 0 0 0 0 0 0 0 0 0 0 0 0 0 0 0 0 0 0 0 0 0 0 0 0
3 0 0 0 0 0 0 0 0 0 0 0 0 0 0 0 0 0 0 0 0 0 0 0 0 0 0 0 0 0 0 0 0 0 0 0 0 0 0 0 0 0 0 0
0 0 0 0 0 0 0 0 0 0 0 0 0 0 0 0 0 0 0 1 0 0 0 0 0 0 0 0 0 0 0 0 0 0 0 0 0 0 0 0 0 0 0 0
0 0 0 0 0 0 0 0 0 0 0 1 0 0 0 0 0 0 0 0 0 0 0 0 0 0 0 0 0 0 0 0 0 0 0 0 0 0 0 0 0 0 0 0
0 0 0 0 0 0 0 0 0 0 0 0 1 0 0 0 0 0 0 1 0 0 0 0 0 0 0 0 0 0 0 0 0 0 0 0 0 0 0 0 0 0 0 0
0 0 0 0 0 0 0 0 0 0 0 0 0 0 0 0 0 0 0 0 0 0 0 0 0 0 0 0 0 0 0 0 0 0 0 0 0 0 0 0 0 0 0 0
0 0 0 0 1 1 0 0 0 0 0 0 0 0 0 0 0 0 0 0 0 0 0 0 0 0 0 0 0 0 0 0 0 0 0 0 0 0 0 0 0 0 0 0

GFSNW_con_sbcape_030.txt.gz
CAPE
78 102 83 88 71 48 64 43 39 3 0 1 0 20 10 0 0 0 0 0 0 0 0 0 0 0 0 0 0 3 10 0 8 0 0 0 0 0 0 0 0 0 0 0
84 75 90 73 70 51 44 41 75 24 0 0 0 0 13 0 0 0 0 0 0 0 0 0 0 0 20 4 5 0 0 0 0 0 0 0 0 0 0 0 0 0 0 0
120 93 103 92 11 65 60 64 67 74 5 0 0 0 0 0 0 0 0 0 0 0 0 0 2 0 15 8 0 0 4 0 0 0 0 0 0 21 4 0 0 0 0 0
142 128 109 85 104 78 73 77 59 13 4 0 0 0 0 0 0 0 1 0 0 0 0 0 0 0 12 7 0 1 0 0 0 0 0 0 0 2 9 0 0 0 0 0
126 156 106 29 24 91 63 90 71 53 6 2 0 0 0 0 0 0 0 0 0 0 0 0 8 1 0 1 0 0 0 0 0 0 0 0 0 0 0 0 0 0 0 0
141 163 88 55 53 34 21 29 27 60 8 2 3 0 0 0 0 0 0 0 0 0 0 17 6 0 3 0 0 0 0 0 0 0 0 0 0 0 0 0 0 0 0 0
137 55 28 27 15 14 78 21 28 97 13 8 0 0 0 0 0 0 0 0 0 0 0 0 0 0 0 0 4 0 0 0 0 0 0 0 0 0 0 0 0 0 0 0
112 65 76 63 36 8 43 18 42 74 36 11 5 0 0 0 0 0 0 21 0 0 0 0 0 0 0 0 0 0 0 0 0 0 0 0 0 0 0 0 0 0 0 0
91 76 66 37 48 5 18 10 3 10 71 12 36 0 0 0 0 0 53 28 0 38 0 0 0 0 0 0 0 0 0 0 0 0 0 0 0 0 0 0 0 0 0 0
84 84 51 6 0 25 20 31 7 22 12 79 41 2 0 0 0 3 64 60 36 0 0 0 0 0 0 0 0 0 0 0 0 0 0 0 0 0 0 0 0 0 0 0
87 75 25 4 2 66 4 20 4 37 38 0 6 0 0 0 0 6 4 24 2 0 7 0 0 0 0 0 0 0 0 0 0 0 0 0 0 0 0 0 0 0 0 0
87 59 42 5 74 64 2 7 15 9 22 27 0 0 0 0 0 17 0 1 0 0 0 0 0 0 0 0 0 0 0 0 0 0 0 0 0 0 0 0 0 0 0 0
75 48 36 85 84 54 5 5 19 47 37 4 0 0 0 0 0 10 26 1 1 17 0 0 0 1 0 0 0 0 0 0 0 0 0 0 0 0 0 0 0 0 0 0
53 57 64 59 56 22 15 8 9 73 42 3 1 6 0 0 6 28 7 34 143 89 0 0 0 0 0 0 0 0 0 0 0 0 0 0 0 0 0 0 0 0 0 0
25 73 59 36 37 27 15 51 32 4 30 3 0 0 13 4 107 125 66 192 54 0 0 0 0 0 2 0 0 0 0 0 0 0 0 0 0 0 0 0 0 0 0 0
98 113 82 42 24 48 78 91 62 36 46 19 6 0 0 2 23 146 191 150 25 0 0 2 0 0 0 0 0 0 0 0 0 0 0 0 0 0 0 0 0 0 0 0
101 69 40 38 22 56 50 11 0 0 8 42 15 0 0 0 0 0 0 0 0 0 0 2 0 0 0 0 0 0 0 0 0 0 0 0 0 0 0 0 0 0 0 0
35 53 39 45 13 44 20 0 0 1 20 42 27 9 0 0 0 5 0 0 0 0 0 0 0 0 0 0 0 0 0 0 0 0 0 0 0 0 0 0 0 0 0 0
13 16 17 14 26 14 0 0 0 0 2 0 1 4 7 0 1 0 0 0 0 0 0 0 0 0 13 0 0 0 0 0 0 0 0 0 0 0 0 0 0 0 0 0
19 33 81 59 16 9 37 35 2 1 0 0 0 0 0 0 0 1 0 0 0 0 0 0 0 0 0 0 0 0 0 0 0 0 0 0 0 0 0 0 0 0 0 0
24 27 18 14 2 10 6 0 0 0 0 0 0 1 0 0 0 0 0 0 0 0 0 0 0 0 0 0 0 0 0 0 0 0 0 0 0 0 0 0 0 0 0 0
17 2 0 7 15 0 0 0 0 0 0 0 0 0 0 0 0 0 0 0 0 0 0 0 0 0 0 0 0 0 0 0 0 0 0 0 0 0 0 0 1 0 0 0
0 0 0 0 0 0 0 0 0 0 0 0 0 0 0 0 0 0 0 0 0 0 0 0 0 0 0 0 0 0 0 0 0 0 0 0 0 0 0 0 0 0 0 0
0 0 0 0 0 0 0 0 0 0 0 1 0 1 0 1 0 0 0 0 0 0 0 0 0 0 0 0 0 0 0 0 0 0 0 0 0 0 0 0 0 0 0 0
0 0 0 0 0 0 0 0 0 0 0 1 0 0 0 0 0 0 0 0 0 0 0 0 0 0 0 0 0 0 0 0 0 0 0 0 0 0 0 0 0 0 0 0
0 0 0 0 0 0 0 0 0 0 0 0 0 0 0 0 0 0 0 0 0 0 0 0 0 0 0 0 0 0 0 0 0 0 0 0 0 0 0 0 0 0 0 0
0 0 0 0 0 0 0 0 0 0 0 0 0 0 0 0 0 1 3 0 0 0 0 0 0 0 0 0 0 0 0 0 0 0 0 0 0 0 0 0 0 0 0 0

GFSNW_con_sbcape_033.txt.gz
CAPE
94 117 75 93 60 47 52 43 27 21 4 10 0 0 0 0 0 0 0 0 0 0 0 0 0 0 0 0 0 0 0 0 0 0 0 0 0 0 0 0 0 0 0 0
47 43 71 77 74 66 20 33 67 57 23 11 0 0 0 0 0 0 0 0 0 0 0 0 0 0 0 0 0 0 0 0 0 0 0 0 0 0 0 0 0 0 0 0
90 61 63 67 73 67 48 77 61 68 84 0 1 0 0 0 0 0 0 0 0 0 0 0 0 0 0 0 0 0 0 0 0 0 0 0 6 13 0 0 0 0 0 0
81 64 68 78 82 25 7 47 47 42 37 12 4 0 0 0 0 0 0 0 0 0 0 0 0 0 0 0 0 0 0 0 0 0 0 0 0 0 0 0 0 0 0 0
102 87 66 63 80 87 34 27 56 53 7 13 12 3 0 0 0 0 0 0 0 0 0 0 0 0 0 0 0 0 0 0 0 0 0 0 0 0 0 0 0 0 0 0
87 92 89 79 96 97 23 5 1 28 14 2 20 1 0 0 0 0 0 0 0 0 0 0 0 0 0 0 0 0 0 0 0 0 0 0 0 0 0 0 0 0 0 0
94 91 83 98 113 56 77 8 15 50 14 7 2 1 2 0 0 0 0 0 0 0 0 0 0 0 0 0 0 0 0 0 0 0 0 0 0 0 0 0 0 0 0 0
81 63 79 81 73 47 1 50 19 43 23 0 15 3 0 0 0 0 0 0 0 0 0 0 11 2 0 0 0 0 0 0 0 0 0 0 0 0 0 0 0 0 0 0
56 50 58 50 69 7 24 1 4 11 21 1 9 2 3 0 0 0 0 0 0 0 0 0 11 38 0 0 0 0 0 0 0 0 0 0 0 0 0 0 0 0 0 0
57 61 47 109 67 23 28 15 54 25 13 5 31 32 0 0 0 0 0 16 7 0 0 0 0 0 0 0 0 0 0 0 0 0 0 0 0 0 0 0 0 0 0 0
61 62 46 45 73 107 10 18 5 4 6 4 19 7 5 0 0 0 0 73 12 0 6 0 0 0 0 0 0 0 0 0 0 0 0 0 0 0 0 0 0 0 0 0
73 90 71 64 34 54 0 63 60 14 11 9 0 0 0 0 0 0 0 0 7 2 1 0 0 0 0 0 0 0 0 0 0 0 0 0 0 0 0 0 0 0 0 0
69 55 64 75 64 53 60 39 13 19 13 0 0 0 0 0 0 0 18 0 0 0 0 0 0 0 0 0 0 0 0 0 0 0 0 0 0 0 0 0 0 0 0 0
65 59 65 43 44 80 42 47 54 27 20 4 0 5 3 0 0 0 0 10 20 0 0 0 0 0 0 0 0 0 0 0 0 0 0 0 0 0 0 0 0 0 0 0
72 103 101 49 73 64 27 31 42 37 35 9 1 0 0 0 0 0 1 90 7 0 0 0 0 0 0 0 0 0 0 0 0 0 0 0 0 0 0 0 0 0 0 0
75 72 53 131 92 35 38 48 47 32 38 23 1 0 0 0 10 9 0 11 0 0 0 1 0 0 0 0 0 0 0 0 0 0 0 0 0 0 0 0 0 0 0 0
42 59 60 44 5 0 26 8 1 0 50 20 0 0 0 0 0 0 0 0 0 0 0 0 0 0 0 0 0 0 0 0 0 0 0 0 0 0 0 0 0 0 0 0
48 46 39 15 5 13 78 38 0 0 6 25 0 0 0 0 0 0 0 0 0 1 0 0 0 0 0 0 0 0 0 0 0 0 0 0 0 0 0 0 0 0 0 0
53 48 42 52 43 55 27 5 20 5 11 4 1 0 0 0 1 1 0 0 0 0 0 0 0 0 7 0 0 0 0 0 0 0 0 0 0 0 0 0 0 0 0 0
92 98 160 26 62 15 4 16 38 2 5 0 1 0 6 1 0 1 0 0 0 1 0 0 0 0 0 0 0 0 0 0 0 0 0 0 0 0 0 0 0 0 0 0
65 9 29 21 0 0 0 15 0 1 1 0 0 0 3 0 0 1 0 0 0 0 0 0 0 0 0 0 0 0 0 0 0 0 0 0 0 0 0 0 0 0 0 0
18 28 25 6 0 0 0 1 0 0 0 0 1 0 0 0 0 0 0 0 0 0 0 0 0 0 0 0 0 0 0 0 0 0 0 0 0 0 0 0 0 0 0 0
0 0 0 1 1 0 0 0 0 0 0 0 1 0 0 0 0 0 0 0 0 0 0 0 0 0 0 0 0 0 0 0 0 0 0 0 0 0 0 1 0 0 0 0
0 0 0 0 0 0 1 0 0 0 0 1 1 0 0 0 0 0 0 0 0 0 0 0 0 0 0 0 0 0 0 0 0 0 0 0 0 0 0 0 0 0 0 0
0 0 0 0 1 0 0 0 0 0 0 1 0 0 0 0 0 0 0 0 0 0 0 0 0 0 0 0 0 0 0 0 0 0 0 0 0 0 0 0 0 0 0 0
0 0 0 0 0 0 0 0 0 0 0 0 0 0 0 0 0 0 0 0 1 0 0 0 0 0 0 0 0 0 0 0 0 0 0 0 0 0 0 0 0 0 0 0
0 0 1 1 1 3 3 0 0 0 0 0 0 0 0 0 0 0 3 0 0 0 0 0 0 0 0 0 0 0 0 0 0 0 0 0 0 0 0 0 0 0 0 0

GFSNW_con_sbcape_036.txt.gz
CAPE
48 39 38 86 106 55 60 55 3 0 24 33 25 13 0 0 0 0 0 0 0 0 0 0 0 0 0 0 0 0 0 0 0 0 0 0 0 0 0 0 0 0 0 0
24 31 33 80 93 73 26 35 30 80 0 19 2 7 0 0 0 0 0 0 0 0 0 0 0 0 0 0 0 0 0 0 0 0 0 0 0 0 0 0 0 0 0 0
32 26 41 84 99 70 26 56 10 76 62 0 0 5 2 0 0 0 0 0 0 0 0 0 0 0 0 0 0 0 0 0 0 0 0 0 0 0 0 0 0 0 0 0
36 34 46 88 92 62 28 62 1 28 4 7 2 0 0 2 0 0 0 0 0 0 0 0 0 0 0 0 0 0 0 0 0 0 0 0 0 0 0 0 0 0 0 0
33 38 51 90 45 70 6 20 23 77 1 0 14 24 8 1 0 0 0 0 0 0 0 0 0 0 0 0 0 0 0 0 0 0 0 0 0 0 0 0 0 0 0 0
28 43 55 78 16 63 4 1 0 24 1 2 13 0 0 3 0 0 0 0 0 0 0 0 0 0 0 0 0 0 0 0 0 0 0 0 0 0 0 0 0 0 0 0
30 48 70 45 31 18 0 0 43 66 27 21 0 0 5 7 0 0 0 0 0 0 0 0 0 0 0 0 0 0 0 0 0 0 0 0 0 0 0 0 0 0 0 0
33 56 53 31 49 7 0 0 4 54 55 18 31 9 0 12 0 0 0 0 0 0 0 0 0 0 0 0 0 0 0 0 0 0 0 0 0 0 0 0 0 0 0 0
47 42 29 36 35 36 0 3 3 35 29 35 27 35 0 0 0 0 0 0 0 0 2 0 2 16 0 0 0 0 0 0 0 0 0 0 0 0 0 0 0 0 0 0
49 37 40 23 33 76 0 0 0 45 9 10 34 15 0 5 0 0 0 0 0 0 0 0 0 7 0 1 0 0 0 0 0 0 0 0 0 0 0 0 0 0 0 0
39 38 32 7 54 83 0 0 0 49 11 0 2 54 0 0 0 0 0 34 5 0 0 0 0 0 0 0 0 0 0 0 0 0 0 0 0 0 0 0 0 0 0 0
40 36 33 54 64 72 3 1 0 0 36 3 0 0 0 0 0 0 0 0 0 0 0 0 0 0 0 0 0 0 0 0 0 0 0 0 0 0 0 0 0 0 0 0
37 39 63 74 87 99 6 14 2 29 63 3 15 0 0 0 0 0 0 0 0 0 0 0 0 0 0 0 0 0 0 0 0 0 0 0 0 0 0 0 0 0 0 0
38 70 70 97 114 108 19 26 89 113 89 3 1 24 19 15 0 0 0 0 0 0 0 0 0 0 0 0 0 0 0 0 0 0 0 0 0 0 0 0 0 0 0 0
66 86 99 106 124 110 3 2 51 28 10 2 0 0 0 3 27 0 0 0 0 0 0 0 9 0 0 0 0 0 0 0 0 0 0 0 0 0 0 0 0 0 0 0
73 89 97 102 101 65 32 23 18 39 77 20 0 0 0 1 34 2 0 0 0 0 0 0 0 0 0 0 0 0 0 0 0 0 0 0 0 0 0 0 0 0 0 0
90 99 97 68 70 39 3 1 0 5 0 26 0 0 0 1 0 0 0 0 0 0 0 0 0 0 0 0 0 0 0 0 0 0 0 0 0 0 0 0 0 0 0 0
58 68 92 77 3 1 0 5 1 0 36 19 3 0 0 0 0 0 0 0 0 0 0 0 0 0 0 0 0 0 0 0 0 0 0 0 0 0 0 0 0 0 0 0
68 49 24 5 7 1 0 0 18 39 7 0 5 4 2 0 0 2 0 0 5 0 0 1 0 0 0 0 0 0 0 0 0 0 0 0 0 0 0 0 0 0 0 0
40 1 8 0 0 17 4 107 40 42 31 24 0 0 0 0 0 0 0 0 0 1 0 0 0 0 0 0 0 0 0 0 0 0 0 0 0 0 0 0 0 0 0 0
1 1 2 9 40 40 7 1 1 1 1 0 0 0 1 0 0 0 0 0 0 0 0 0 0 0 0 0 0 0 0 0 0 0 0 0 0 0 0 0 0 0 0 0
0 14 15 28 0 0 0 0 0 0 0 0 0 0 0 0 0 1 0 0 0 0 0 0 1 0 0 0 0 0 0 0 0 0 0 0 0 0 0 0 0 0 0 0
4 0 0 0 0 0 0 0 0 0 0 0 1 0 0 0 0 0 0 0 0 0 0 0 0 4 0 0 0 0 0 0 0 0 0 0 0 0 0 0 0 0 0 0
0 3 0 0 0 0 0 0 0 0 0 0 0 0 0 1 0 0 0 0 0 0 0 0 0 0 0 0 0 0 0 0 0 0 0 0 0 0 0 0 0 0 0 0
0 0 0 0 0 0 0 0 0 0 0 0 0 0 0 0 0 0 0 0 0 0 0 0 0 0 0 0 0 0 0 0 0 0 0 0 0 0 0 0 0 0 0 0
0 1 0 0 0 0 1 1 1 0 0 0 0 0 0 0 0 0 0 0 0 1 0 0 0 0 0 1 1 1 0 0 0 0 1 0 0 0 0 0 0 0 0 0
0 4 2 0 4 3 2 2 1 1 0 0 0 0 0 0 0 0 0 0 2 3 0 0 0 0 1 0 0 1 0 0 0 0 0 0 0 0 0 0 0 0 0 0

GFSNW_con_sbcape_039.txt.gz
CAPE
79 79 67 64 52 55 98 19 13 0 31 18 26 17 8 4 0 0 0 0 0 0 0 0 0 0 0 0 0 0 0 0 0 0 0 0 0 0 0 6 0 0 0 0
86 86 56 45 38 68 11 9 22 29 15 32 4 4 11 1 0 0 0 0 0 0 0 0 0 0 0 0 0 0 0 0 0 0 0 0 0 0 0 0 0 0 32 0
123 102 53 28 44 80 9 37 32 87 79 0 0 9 11 8 0 0 0 0 4 3 0 0 0 0 0 0 0 0 0 0 0 0 0 0 0 0 0 0 0 0 0 0
119 118 53 22 60 83 26 62 33 9 23 18 0 0 0 5 2 0 0 0 2 2 0 0 0 0 0 0 0 0 0 0 0 0 0 0 0 0 0 0 0 0 0 0
122 142 44 22 68 100 51 12 37 17 25 3 27 29 8 0 0 0 0 0 0 0 2 0 0 0 0 0 0 0 0 0 0 0 0 0 0 0 0 0 0 0 0 0
152 119 34 23 74 83 26 11 0 1 0 8 2 6 7 8 3 0 0 0 0 0 0 1 0 0 0 0 0 0 0 0 0 0 0 0 0 0 0 0 0 0 0 0
109 82 28 34 79 24 9 0 0 9 0 17 0 7 21 18 2 0 0 0 0 0 1 0 0 0 0 0 0 0 0 0 0 0 0 0 0 0 0 0 0 0 0 0
60 80 24 48 68 63 0 0 0 24 43 34 9 22 2 42 25 1 0 0 0 0 21 10 1 0 0 0 0 0 0 0 0 0 0 0 0 0 0 0 0 0 0 0
21 60 20 38 64 71 1 0 0 15 47 49 25 19 11 9 18 3 0 0 0 0 0 7 0 4 0 0 0 0 0 0 0 0 0 0 0 0 0 0 0 0 0 0
32 49 23 45 67 52 1 0 0 45 40 13 40 63 22 12 15 0 0 0 0 0 0 0 0 0 0 0 0 0 0 0 0 0 0 0 0 0 0 0 0 0 0 0
64 25 31 43 52 29 0 0 0 7 17 1 9 0 20 6 2 0 0 0 0 0 0 0 0 0 0 0 0 0 0 0 0 0 0 0 0 0 0 0 0 0 0 0
29 22 39 46 45 24 0 0 2 0 0 8 24 3 0 0 16 0 0 0 0 0 0 0 0 0 0 0 4 0 1 0 0 0 0 0 0 0 0 0 0 0 0 0
29 45 22 30 45 29 2 0 0 0 16 0 1 0 0 0 0 0 0 0 0 0 0 0 1 0 0 0 0 0 0 0 0 0 0 0 0 0 0 0 0 0 0 0
37 26 29 33 30 38 3 12 0 1 70 19 3 22 25 23 0 0 0 7 0 0 0 0 0 3 0 0 0 0 0 0 0 0 0 0 0 0 0 0 0 0 0 0
29 34 42 53 59 21 0 0 0 1 78 16 0 3 2 0 0 0 0 7 7 0 0 0 13 0 0 0 0 0 0 0 0 0 0 0 0 0 0 0 0 0 0 0
26 41 45 45 45 8 23 64 55 93 83 5 0 0 0 5 90 60 3 0 0 3 0 0 0 0 0 0 0 0 0 0 0 0 0 0 0 0 0 0 0 0 0 0
14 26 49 45 55 34 66 39 0 0 73 89 6 0 0 0 80 37 2 0 3 2 0 0 0 0 0 0 0 0 0 0 0 0 0 0 0 0 0 0 0 0 0 0
40 45 49 49 49 19 21 0 1 3 78 23 1 0 1 0 1 4 0 1 0 0 0 0 0 0 0 0 0 0 0 0 0 0 0 0 0 0 0 0 0 0 0 0
32 56 67 47 43 31 0 19 0 0 20 0 0 4 0 0 2 2 0 2 0 1 0 0 0 0 0 0 0 0 0 0 0 0 0 0 0 0 0 0 0 0 0 0
49 40 53 1 8 1 35 26 17 11 19 28 27 3 0 0 0 1 0 0 0 2 0 0 0 0 0 0 0 0 0 0 0 0 1 0 0 0 0 0 0 0 0 0
25 5 5 10 9 33 0 0 1 3 6 0 0 0 9 0 0 0 0 0 0 0 0 0 0 0 0 1 0 0 0 0 0 0 0 0 0 0 0 0 0 1 1 1
0 5 33 30 4 0 0 0 0 0 0 0 0 0 0 0 0 0 0 0 0 0 0 0 0 3 2 2 1 1 0 0 0 0 0 0 0 0 0 0 1 1 0 0
21 0 0 0 0 5 0 0 3 1 0 0 0 0 0 0 0 0 0 0 0 0 0 1 5 7 2 2 0 0 0 0 0 1 0 0 0 0 0 0 0 0 1 2
0 1 1 0 0 1 0 1 1 0 0 0 0 0 0 0 0 0 0 0 0 1 0 2 5 4 3 1 1 0 0 0 0 0 0 0 0 0 0 0 0 0 0 1
0 0 0 0 6 5 6 1 0 0 0 0 0 0 0 0 0 0 0 0 1 2 4 6 3 2 1 1 1 1 1 0 1 1 0 0 0 0 0 1 1 0 0 0
0 0 0 0 1 0 0 0 0 2 0 0 0 0 0 2 1 0 0 1 1 3 3 3 1 1 1 2 1 1 1 1 2 2 2 1 0 0 1 0 0 0 0 0
3 7 0 0 2 2 1 1 1 1 0 3 0 0 1 0 0 0 2 0 3 1 3 3 6 4 4 3 3 4 4 3 3 2 2 2 1 0 0 0 0 0 0 0

GFSNW_con_sbcape_045.txt.gz
CAPE
65 60 58 69 70 45 44 51 39 87 123 36 70 48 0 0 0 0 1 6 13 7 32 6 0 0 0 0 0 0 0 21 44 21 14 8 17 35 69 106 99 142 176 180
38 65 54 65 60 58 47 31 63 176 162 22 87 6 0 0 0 2 10 50 42 66 42 39 1 0 0 4 0 1 0 6 55 54 31 15 12 55 73 110 104 108 341 178
60 75 65 50 54 55 36 34 41 56 91 23 47 0 0 0 0 13 17 57 61 57 100 63 30 4 0 6 0 0 6 4 10 44 38 48 9 3 33 64 197 94 81 99
71 79 88 78 69 41 35 30 74 15 21 61 30 1 0 4 0 0 25 57 51 12 64 47 48 37 25 0 1 4 4 10 8 14 38 34 39 41 45 67 56 119 68 97
78 76 83 85 82 35 23 3 66 80 39 37 26 22 3 2 19 1 5 46 64 87 79 63 45 44 10 3 11 21 29 26 17 25 39 34 17 11 18 33 43 47 56 42
99 96 80 84 81 23 4 27 10 91 37 65 78 55 0 0 16 30 10 3 55 79 105 201 96 50 21 4 55 62 62 83 51 50 36 47 80 0 9 15 18 35 58 37
87 103 86 82 92 59 1 33 62 170 90 107 29 6 4 0 5 56 35 69 129 54 175 71 94 42 0 3 4 21 158 96 100 80 7 48 1 1 0 0 0 13 19 6
70 95 88 74 89 120 0 36 248 181 211 47 35 36 37 19 43 93 101 111 59 127 86 87 34 19 0 0 2 1 16 201 146 161 78 0 0 0 1 3 0 2 7 2
53 58 81 83 61 31 17 70 279 486 288 73 22 48 45 29 79 140 93 160 180 246 163 111 38 0 0 0 2 6 61 111 258 93 61 48 0 0 0 2 1 0 18 1
87 49 82 80 51 51 41 66 449 266 108 100 49 63 60 33 103 170 64 243 362 302 291 161 154 17 0 4 45 0 0 28 170 147 98 31 0 0 14 57 73 32 27 0
85 73 52 62 42 53 26 23 206 198 142 78 27 74 85 76 215 280 73 277 288 408 278 169 59 146 50 33 0 47 36 63 114 153 148 85 2 1 6 98 209 124 76 2
40 63 48 61 28 51 26 41 99 323 194 19 57 139 140 98 104 254 251 194 153 84 172 184 29 305 568 34 79 10 84 68 187 111 79 136 30 131 63 91 120 174 97 3
33 46 56 40 61 34 31 79 185 149 75 82 54 50 46 7 86 262 161 374 170 182 123 186 274 194 432 218 111 27 38 82 186 114 98 102 143 33 63 115 162 160 90 6
56 41 40 39 45 36 24 77 85 84 38 93 52 10 33 30 0 17 185 214 308 322 312 370 282 302 37 287 176 169 106 99 52 54 23 71 67 76 164 128 67 55 13 0
38 52 71 59 33 46 46 57 81 74 18 68 40 25 29 138 10 10 121 293 278 192 435 444 165 88 82 143 205 131 44 57 214 118 29 232 270 256 67 147 97 0 0 0
48 37 21 36 37 6 15 8 21 69 30 23 57 63 37 65 22 5 52 183 195 204 83 275 59 0 53 187 62 0 0 16 38 41 136 114 106 50 11 51 86 19 0 0
5 8 29 27 14 24 42 42 7 4 35 28 5 35 88 63 41 36 248 212 133 207 112 191 163 174 103 312 118 0 0 0 0 16 44 8 9 23 0 3 12 0 0 0
17 19 22 9 2 7 50 58 3 10 19 2 13 60 121 130 156 166 257 268 265 150 70 82 124 156 152 101 4 0 0 2 62 34 18 12 0 0 0 0 0 0 0 0
24 9 6 7 19 26 28 0 0 51 41 40 76 64 98 2 33 119 142 104 144 101 112 106 96 139 101 49 14 3 6 0 0 0 0 0 0 0 0 0 0 0 0 0
0 10 11 11 46 2 1 19 38 48 70 196 109 70 12 3 9 5 4 22 43 22 0 105 73 91 14 3 3 1 0 0 0 0 0 0 0 0 0 0 0 0 0 0
19 10 32 61 0 12 68 52 22 11 81 72 63 96 35 80 20 10 6 2 0 1 36 251 106 40 12 8 10 8 4 1 0 0 0 0 0 0 0 0 0 0 0 0
4 39 40 99 92 70 49 6 9 17 85 92 78 45 23 3 13 7 11 4 9 33 1 177 3 10 9 8 9 6 3 3 3 2 1 0 0 0 0 1 1 2 2 2
161 139 71 88 28 27 1 45 166 14 4 2 43 34 17 10 17 11 7 19 9 0 8 13 26 15 8 12 11 4 3 2 3 4 4 4 3 2 2 4 3 2 2 2
6 73 16 29 23 16 10 11 13 8 2 1 3 1 7 2 14 0 14 6 9 21 18 21 24 23 16 12 7 2 4 3 2 3 2 2 1 2 3 2 3 3 5 7
6 0 6 11 17 12 14 17 11 8 10 6 1 1 5 2 8 10 56 37 12 15 21 25 19 27 17 14 12 9 7 6 7 7 10 8 7 6 7 7 6 4 3 2
5 4 6 5 12 14 13 14 7 8 2 2 2 8 10 9 12 5 11 6 9 22 27 22 20 21 17 16 14 14 16 15 14 14 12 9 6 6 9 7 8 8 9 9
12 18 14 12 13 15 19 20 12 16 17 12 10 2 7 14 7 4 9 10 17 17 16 22 13 9 11 12 15 15 15 15 14 11 10 12 12 8 7 7 8 5 7 7

GFSNW_con_sbcape_048.txt.gz
CAPE
57 65 75 72 62 46 52 33 26 97 116 58 39 25 0 0 0 0 0 0 0 4 0 1 16 0 18 0 2 0 0 51 43 9 2 0 4 5 39 82 51 185 377 117
52 46 67 62 60 54 35 20 22 72 114 14 31 13 0 0 0 0 0 0 0 6 20 51 38 31 4 2 2 5 0 9 42 46 60 17 0 26 5 37 101 133 68 40
64 64 60 60 56 57 27 11 4 69 56 22 13 12 0 0 0 0 0 0 0 2 39 73 30 38 20 33 0 0 20 10 7 23 9 24 29 25 27 55 53 24 87 32
85 60 62 74 63 44 30 11 12 2 21 26 15 37 0 0 0 0 0 4 20 3 34 49 20 73 31 8 4 9 43 65 39 26 0 39 21 9 0 6 20 68 41 31
47 78 65 61 70 64 20 1 24 69 15 32 38 33 17 3 0 0 0 24 14 37 46 4 4 96 59 30 32 31 26 62 40 37 6 0 6 1 6 0 8 26 47 53
73 76 73 58 61 72 9 6 1 57 26 41 55 21 0 0 4 9 0 1 43 120 58 14 68 27 76 86 85 72 82 139 44 20 23 7 0 25 16 3 6 19 34 63
88 94 61 52 68 67 0 11 11 74 46 86 28 1 1 2 21 17 1 43 74 65 83 129 59 99 53 26 61 33 73 113 107 42 61 23 0 7 2 0 0 0 11 19
76 83 82 61 57 65 25 39 33 43 133 46 33 10 16 14 47 41 29 58 13 46 301 47 11 8 22 0 66 17 11 108 209 76 32 25 0 0 0 0 0 0 0 2
70 69 69 72 72 89 42 25 26 52 106 119 4 25 20 40 85 95 18 11 118 207 314 122 56 7 5 63 35 9 8 49 97 195 16 0 0 0 0 5 0 0 0 16
39 56 63 71 82 104 80 10 11 82 101 87 188 161 104 56 69 97 34 28 216 318 414 138 14 5 1 15 78 34 7 6 61 60 71 56 1 0 8 19 6 65 65 45
26 57 53 58 91 110 54 22 62 76 98 242 143 20 1 68 218 127 4 288 388 21 113 316 104 140 86 5 21 56 17 19 45 93 70 31 16 20 36 70 274 265 142 184
121 128 67 49 82 119 22 17 41 81 213 102 90 81 154 73 84 229 198 181 126 152 228 282 309 535 321 72 52 54 38 0 14 94 83 125 60 45 112 248 360 357 280 203
91 88 66 49 95 88 44 25 28 44 44 19 12 14 182 127 193 375 356 218 229 369 158 273 511 360 249 386 191 86 19 86 82 19 0 25 62 24 80 91 161 218 206 209
80 57 53 66 85 50 67 22 24 23 36 52 3 0 105 95 63 87 176 248 315 543 559 408 435 274 146 172 190 113 17 46 75 29 4 18 1 0 55 199 157 175 100 85
73 69 48 74 79 73 92 48 29 187 74 4 32 59 26 54 20 7 40 146 222 434 177 297 190 60 277 349 271 164 71 68 80 169 74 112 162 62 171 85 9 72 90 65
45 45 47 45 50 67 7 5 4 46 11 24 48 30 53 90 41 6 0 70 154 346 181 261 274 232 277 482 158 0 0 27 38 132 156 114 120 46 52 9 12 78 85 18
41 49 49 54 33 36 42 3 10 0 13 17 24 30 13 16 68 58 18 54 47 163 143 154 135 227 84 118 69 0 0 0 4 5 25 32 21 59 10 3 6 26 38 20
45 38 42 30 18 38 38 8 0 20 31 11 20 31 81 71 122 87 131 231 247 157 98 155 240 189 212 79 3 5 3 16 29 6 9 37 14 0 0 0 0 7 7 6
21 25 19 5 25 52 38 0 0 201 49 40 18 39 81 0 113 141 232 255 115 231 245 159 236 218 31 12 4 1 1 0 0 0 0 0 0 0 0 0 0 0 0 0
16 11 11 12 56 4 5 43 36 40 67 60 51 13 78 2 2 17 85 147 61 46 149 165 104 6 2 5 8 6 2 0 2 0 0 0 0 0 0 0 0 0 0 0
46 49 18 35 2 43 49 15 14 9 3 7 20 100 45 5 6 2 10 51 0 110 141 137 104 1 7 4 12 9 2 0 0 0 0 0 0 0 0 0 0 0 0 1
12 8 16 12 6 33 22 24 6 10 29 126 139 108 21 9 10 2 3 1 1 2 57 27 7 21 11 7 8 5 6 3 2 1 2 2 2 2 2 2 2 2 2 1
82 75 30 51 7 23 20 3 22 66 3 4 71 38 16 11 4 0 0 0 3 2 10 13 26 12 9 7 4 4 3 2 2 2 2 1 2 1 1 3 1 1 1 1
6 10 2 14 5 7 10 8 14 13 4 1 1 3 2 0 0 0 11 3 1 15 10 12 21 20 21 15 9 3 5 4 4 3 2 1 1 1 0 1 1 0 0 2
0 0 4 6 11 12 12 15 10 8 8 4 1 4 13 5 11 6 27 20 6 9 9 13 27 16 17 14 13 10 8 4 4 4 3 2 1 2 3 2 1 1 0 0
2 2 4 4 4 8 11 12 9 10 6 1 0 8 6 5 7 1 5 3 6 15 20 16 12 11 11 14 14 11 9 9 8 7 6 4 2 2 3 2 1 1 1 0
12 18 14 20 12 15 19 16 8 2 7 12 7 2 10 5 3 4 11 11 14 14 17 16 8 6 9 6 5 5 5 7 9 7 7 6 4 2 2 4 6 4 3 1

GFSNW_con_sbcape_051.txt.gz
CAPE
72 71 68 73 80 50 36 22 8 1 0 23 23 0 0 0 0 0 0 0 0 0 0 0 0 0 1 1 0 0 0 0 0 0 0 0 0 0 0 0 28 21 0 1
65 59 65 69 77 63 26 15 11 13 1 4 15 3 1 7 0 0 0 0 0 0 0 0 0 13 9 18 0 0 0 0 0 0 0 0 0 0 0 20 31 0 2 0
63 59 62 66 81 67 33 4 1 38 36 0 0 2 3 6 5 0 0 0 0 0 0 0 0 0 47 6 0 0 0 0 0 0 0 3 0 0 0 0 3 2 0 0
60 59 67 77 74 72 42 5 2 2 24 12 7 0 0 2 5 0 0 0 0 0 0 0 0 0 0 0 0 0 0 0 0 0 0 0 13 2 0 1 0 10 0 1
52 66 58 65 59 62 35 0 3 7 0 15 24 10 0 0 0 0 0 0 0 0 0 0 0 16 0 0 0 0 1 0 0 0 0 0 0 0 0 5 12 16 0 0
79 72 31 60 60 62 52 4 0 1 7 11 19 3 0 0 3 0 0 0 0 0 0 0 87 116 103 3 0 1 8 0 0 0 0 1 0 0 0 0 5 0 0 0
93 83 40 30 52 38 12 0 1 1 16 1 1 0 4 0 11 0 0 0 0 0 12 383 191 81 17 1 6 38 0 4 0 0 4 0 0 0 0 0 0 0 0 0
73 77 56 27 28 69 8 0 1 3 1 0 2 0 0 0 1 2 0 0 0 0 0 78 49 6 0 0 21 16 5 1 18 16 0 0 0 0 0 0 0 0 0 0
70 57 55 49 53 63 40 0 5 12 4 0 0 11 0 0 0 0 0 0 0 0 1 82 24 19 1 16 3 10 1 4 11 21 19 0 0 0 0 0 0 0 0 0
65 70 44 53 58 74 46 0 0 9 5 0 9 1 0 0 0 0 0 0 0 6 0 0 23 10 9 9 1 3 6 0 0 0 12 3 0 0 5 0 0 0 0 0
62 58 43 45 66 79 51 10 2 1 3 2 0 64 10 1 20 0 0 1 0 35 0 11 16 20 0 4 0 0 1 13 0 0 4 2 0 0 0 0 0 0 12 10
53 71 49 44 77 83 85 32 10 4 2 17 37 89 8 38 104 46 16 0 0 0 0 0 30 55 2 0 0 0 7 63 16 0 0 0 0 0 0 2 71 68 67 46
69 98 159 75 63 76 69 22 15 19 3 32 35 57 166 179 43 115 122 4 2 87 5 0 39 50 17 0 0 0 19 76 50 45 0 0 0 0 0 0 0 1 39 16
78 161 141 85 93 72 84 16 13 1 40 3 2 5 90 42 0 3 44 175 207 157 63 23 1 1 51 5 8 33 28 78 60 12 0 3 0 0 0 0 0 0 0 17
43 111 166 156 105 70 33 11 11 49 44 0 7 0 0 8 22 0 19 207 151 80 81 25 43 0 34 25 17 1 62 30 66 19 76 75 35 39 0 0 0 0 0 0
85 109 129 95 60 57 57 12 22 11 12 13 6 0 0 17 57 5 7 23 67 67 43 32 0 0 63 17 8 38 26 0 0 0 31 142 135 57 51 14 1 0 0 0
39 43 46 50 37 24 26 0 0 16 6 10 7 1 10 28 20 15 10 0 16 23 38 50 46 32 70 0 36 5 0 0 0 0 60 52 3 7 0 0 0 0 0 0
32 37 38 35 26 52 8 0 0 0 0 0 0 3 0 5 3 12 12 9 14 0 30 31 26 11 18 10 3 2 0 0 0 0 0 0 0 0 0 0 0 0 0 0
41 31 5 1 0 2 1 0 1 1 0 0 0 6 3 0 3 12 12 12 33 9 0 0 1 0 1 14 10 8 5 3 0 0 0 0 0 0 0 0 0 0 0 0
6 4 0 0 1 0 0 2 8 6 0 0 0 0 0 0 0 0 0 1 9 33 3 16 1 7 12 4 13 11 7 3 0 0 0 0 0 0 0 0 0 0 0 0
24 6 7 0 0 2 0 2 0 0 0 0 0 1 0 0 0 0 0 0 0 3 8 0 2 5 7 4 4 2 5 5 1 1 1 1 1 1 1 1 2 1 1 1
0 3 11 1 0 0 0 0 0 0 0 1 10 4 0 0 0 0 0 0 0 0 0 1 3 15 7 3 5 4 4 4 6 7 5 4 4 3 2 2 2 2 1 0
16 20 0 2 0 0 0 2 11 1 1 3 0 0 0 3 0 0 0 0 0 0 6 3 16 7 5 7 6 5 5 3 2 3 2 2 2 1 1 2 1 0 0 0
0 0 0 0 0 1 0 1 1 1 2 1 1 0 0 0 0 0 0 0 0 0 0 1 7 7 5 8 8 3 2 1 1 1 1 0 0 0 0 0 0 0 0 0
0 0 0 0 3 3 2 2 1 1 4 0 0 0 1 0 0 0 0 0 0 2 0 6 2 1 3 2 5 3 1 0 0 0 0 0 0 0 0 0 0 0 0 0
0 0 0 0 0 0 0 0 0 1 0 0 0 1 0 1 0 0 0 0 0 0 1 0 2 1 0 0 1 1 1 0 0 0 1 0 0 0 0 0 0 0 0 0
0 1 1 0 1 1 0 2 0 2 0 1 0 0 0 0 0 0 0 0 0 0 0 1 0 0 0 0 0 1 1 0 0 0 2 1 0 0 0 1 2 2 1 0

GFSNW_con_sbcape_054.txt.gz
CAPE
86 87 92 78 77 57 49 36 4 0 0 14 4 5 4 1 0 0 0 0 0 0 0 0 0 0 0 0 0 0 0 0 0 0 0 0 0 0 0 0 0 0 0 0
95 90 89 95 72 67 51 22 10 2 0 3 0 0 2 7 9 0 0 0 0 0 0 0 0 0 0 0 0 0 0 0 0 0 0 0 0 0 0 0 0 0 0 0
95 83 77 80 87 79 55 3 1 20 15 0 0 1 4 3 4 0 0 0 0 0 0 0 0 0 0 0 0 0 0 0 0 0 0 0 0 0 0 0 0 0 0 0
77 80 79 80 79 85 62 6 1 3 7 10 3 0 2 5 4 4 0 0 0 0 0 0 0 0 2 0 0 0 0 0 0 0 0 0 0 0 0 0 0 0 0 0
79 81 76 75 76 93 59 0 4 4 0 8 20 5 5 1 6 6 0 0 0 0 0 0 0 0 1 3 6 0 0 0 0 0 0 0 0 0 0 0 0 0 1 0
95 92 78 70 77 92 37 7 0 0 2 4 24 2 2 7 4 0 0 0 0 0 0 0 0 16 17 10 1 1 1 0 0 0 0 0 0 0 0 0 0 0 0 0
107 105 88 77 75 82 36 20 9 2 5 0 0 6 3 4 7 0 0 0 0 0 0 0 22 35 25 47 38 0 0 2 14 0 0 0 0 0 0 0 0 0 0 0
108 91 102 60 57 65 59 9 18 4 0 0 0 0 0 11 0 0 0 0 0 0 0 0 0 0 0 0 6 44 0 0 0 0 0 0 0 0 0 0 0 0 0 0
70 61 55 80 80 53 54 23 2 14 9 0 0 0 1 0 0 0 0 0 0 0 0 0 0 0 0 0 2 7 51 2 0 0 0 0 0 0 0 0 0 0 0 0
66 65 59 59 68 64 7 7 0 1 3 0 0 0 0 0 0 0 0 0 0 0 0 0 0 0 0 0 0 8 35 0 0 0 0 0 0 0 0 0 0 0 0 0
68 67 61 50 56 63 27 13 10 0 1 0 0 17 2 0 0 0 0 0 0 0 0 0 0 0 0 0 0 0 3 6 0 0 0 0 0 25 3 0 0 0 0 0
62 62 58 49 60 60 69 15 20 7 2 0 0 0 30 0 0 0 0 0 0 0 0 0 0 0 0 0 0 0 0 0 0 0 0 0 0 1 0 0 0 0 0 0
59 56 59 30 59 65 53 5 13 17 7 0 0 0 6 59 50 1 2 2 3 2 0 0 1 5 0 2 0 0 0 0 0 6 6 28 46 0 0 0 0 0 0 0
46 66 75 48 54 67 51 7 11 1 1 1 0 0 0 11 1 25 55 63 91 78 0 0 0 0 1 0 7 0 0 97 49 45 19 43 36 5 0 0 0 0 0 0
68 79 136 129 93 52 34 32 8 0 0 0 1 4 0 1 0 0 3 89 138 12 17 0 21 0 3 0 0 0 0 18 64 23 13 42 1 1 0 0 0 0 0 0
67 127 218 201 78 44 32 19 31 0 55 113 11 1 0 0 0 0 0 36 82 30 45 9 0 11 40 19 0 0 0 0 0 0 0 12 42 25 21 0 0 0 0 0
63 128 168 59 52 33 1 0 0 0 0 9 0 6 13 79 6 0 0 0 4 3 2 12 49 4 16 1 6 2 3 0 0 0 0 4 0 0 0 0 0 0 0 0
72 67 66 43 55 33 48 3 0 0 13 6 0 1 24 0 1 14 0 0 10 4 0 1 16 18 21 0 2 2 6 0 0 0 0 0 0 0 0 0 0 0 0 0
27 15 25 27 2 18 11 0 0 0 4 0 0 0 7 0 0 0 3 0 3 0 0 3 5 0 2 7 8 10 6 11 4 0 0 0 0 0 0 0 0 0 0 0
6 15 3 0 12 2 9 20 3 1 0 0 0 0 0 0 0 0 0 0 11 0 0 0 0 2 11 4 4 3 7 9 3 0 0 1 2 2 1 2 0 0 0 0
0 2 4 3 0 4 0 0 0 0 0 0 0 0 0 0 0 0 0 0 0 1 4 0 1 0 6 4 2 3 5 7 6 4 4 3 3 4 4 3 3 2 1 1
0 2 0 0 0 0 0 0 0 0 2 0 1 0 0 0 0 0 0 0 0 0 3 0 0 8 5 3 4 4 4 2 2 2 3 3 2 2 2 2 2 2 2 0
0 0 0 0 0 0 0 0 0 0 2 1 0 0 0 0 0 0 0 1 1 0 1 1 7 3 5 3 2 3 4 4 2 2 2 1 1 2 2 2 0 0 0 0
0 0 0 0 0 0 0 0 0 0 2 0 1 0 0 0 0 0 0 0 0 0 0 0 3 5 5 4 6 1 2 1 1 0 1 0 0 0 0 0 0 0 0 0
0 0 0 0 0 0 0 1 0 1 2 0 0 0 2 0 0 0 0 0 0 0 0 0 0 0 1 0 1 2 1 0 0 0 0 0 0 0 0 0 0 0 0 0
0 0 0 0 0 0 0 0 0 0 0 0 0 0 0 0 0 0 0 0 0 0 0 0 0 0 0 0 0 0 0 0 0 0 1 0 0 0 0 0 0 0 0 0
0 0 0 0 0 0 0 0 0 2 0 0 0 0 0 0 0 0 1 0 0 0 0 0 0 0 0 0 0 0 0 0 0 0 0 0 0 0 0 1 2 1 1 0

GFSNW_con_sbcape_057.txt.gz
CAPE
116 127 117 87 86 93 78 77 22 1 0 3 20 0 1 0 0 0 0 0 0 0 0 0 0 0 0 0 0 0 0 0 0 0 0 0 0 0 0 0 0 0 0 0
117 105 92 76 81 103 86 32 10 2 0 0 0 0 0 0 0 0 0 0 0 0 0 0 0 0 0 0 0 0 0 0 0 0 0 0 0 0 0 0 0 0 0 0
95 92 81 108 77 82 40 2 1 13 6 0 3 2 0 3 0 0 0 0 0 0 0 0 0 0 0 0 2 0 0 0 0 0 0 0 0 0 0 0 0 0 0 0
119 119 113 121 103 82 49 3 2 4 0 2 5 7 3 0 6 0 0 0 0 0 0 0 0 0 0 0 29 16 0 0 0 0 0 0 0 0 0 0 0 0 0 0
110 105 104 97 97 89 57 0 8 12 0 14 15 15 8 0 0 0 0 0 0 0 0 0 0 0 0 0 1 5 0 1 0 0 0 0 0 0 0 0 0 0 0 0
90 90 91 79 79 93 31 18 0 20 13 0 11 1 9 3 7 0 0 0 0 0 0 0 0 0 0 0 0 0 0 0 1 0 0 0 0 0 0 0 0 0 0 0
91 89 83 74 77 91 31 32 25 12 12 0 3 10 2 1 3 0 0 0 0 0 0 0 0 2 0 0 16 4 0 0 0 6 0 0 0 0 0 0 0 0 0 0
95 86 79 71 84 81 28 19 40 29 9 10 0 5 6 1 1 9 0 0 0 0 0 0 0 0 0 0 0 47 0 0 0 3 24 0 0 0 0 0 0 0 0 0
73 78 85 84 88 87 46 14 48 23 22 10 7 0 2 0 0 1 0 0 0 0 0 0 0 0 0 0 0 5 0 0 8 0 0 3 0 0 0 0 0 0 0 0
82 74 60 57 61 63 41 30 30 3 1 12 2 0 0 0 0 0 0 0 0 0 0 0 0 0 0 0 0 0 1 14 5 13 9 0 0 0 0 0 0 0 0 0
59 60 61 68 76 72 40 7 27 20 0 1 0 0 0 0 0 0 0 0 0 0 0 0 0 0 0 0 0 0 0 0 0 0 13 1 0 0 2 0 0 0 0 0
61 57 55 59 66 66 61 13 8 17 7 3 0 0 0 0 0 0 0 0 0 0 0 0 0 0 0 0 0 0 0 0 0 0 4 0 0 0 0 0 0 0 0 0
45 43 60 73 73 80 50 2 7 13 9 5 0 0 0 15 9 0 0 0 0 0 0 0 0 0 0 0 0 0 0 0 0 0 0 0 0 0 0 0 0 0 0 0
87 69 56 61 76 45 46 1 11 6 5 0 0 0 0 0 0 17 0 3 29 0 0 0 0 0 0 0 0 0 0 6 0 0 0 0 0 0 0 18 33 39 20 2
70 79 100 93 74 43 7 3 4 0 0 0 0 0 0 0 0 6 25 15 32 3 12 1 9 0 3 0 0 0 5 1 17 0 0 2 0 0 0 0 0 15 0 0
50 59 109 121 60 56 12 5 19 0 8 24 0 0 2 0 0 19 0 18 7 2 6 0 2 0 18 0 0 1 1 0 0 1 0 0 0 0 0 0 0 0 0 0
47 66 97 119 55 10 0 0 0 0 0 0 0 5 17 12 1 1 7 0 8 0 0 1 5 16 83 0 0 2 0 0 0 0 0 0 0 0 0 0 0 0 0 0
64 95 100 29 19 38 16 0 0 0 0 1 0 0 3 6 2 6 0 0 0 0 0 0 4 21 14 0 3 1 1 1 0 0 0 0 0 0 0 0 0 0 0 0
88 20 33 28 4 0 15 7 0 0 0 0 0 0 1 0 0 0 0 0 1 0 0 0 0 0 0 3 5 0 2 5 6 1 0 0 0 0 1 0 0 0 1 0
38 13 0 1 1 8 12 0 2 1 4 0 0 0 0 0 0 0 0 0 0 17 0 0 0 3 1 2 1 0 4 18 11 10 1 1 1 1 2 3 2 2 2 2
0 2 0 21 11 3 1 0 0 0 0 0 0 0 0 0 0 0 0 0 0 0 1 0 1 2 4 0 0 4 3 4 2 7 3 1 2 3 2 2 2 3 1 2
0 6 5 1 1 0 0 0 0 0 4 0 0 0 0 0 0 0 0 0 0 1 4 0 0 10 1 3 3 2 3 2 2 2 2 2 2 1 1 1 1 3 2 1
0 0 0 0 0 0 0 0 0 0 2 0 0 0 0 0 0 0 0 0 1 0 0 0 2 3 3 4 2 1 2 2 2 3 4 2 2 2 3 2 1 0 0 0
0 0 0 0 0 0 0 0 0 0 0 0 0 0 0 0 0 0 0 0 0 0 0 0 1 2 0 1 3 0 1 1 1 0 0 0 0 0 0 0 0 0 0 0
0 0 0 0 0 0 0 0 0 0 1 0 0 0 0 0 0 0 0 0 0 0 0 0 0 0 1 2 3 1 0 0 0 0 0 0 0 0 0 0 0 0 0 0
0 0 0 0 0 0 0 0 0 0 0 0 0 0 0 0 0 0 0 0 0 0 0 0 0 0 0 0 0 0 0 0 0 0 1 0 0 0 0 0 0 0 0 0
0 0 0 0 0 0 0 0 0 2 0 0 0 0 0 0 0 0 0 0 0 0 0 0 0 0 0 0 0 0 0 0 0 0 0 0 0 0 0 1 1 2 1 0

GFSNW_con_sbcape_060.txt.gz
CAPE
32 40 44 62 97 106 84 59 20 15 5 3 4 13 6 0 0 0 0 0 0 0 0 0 0 0 0 0 0 0 0 0 0 0 0 0 0 0 0 0 0 0 0 0
48 61 76 116 120 85 56 49 51 29 26 15 2 22 0 0 0 0 0 0 0 0 0 0 0 0 0 0 0 0 0 0 0 0 0 0 0 0 0 0 0 0 0 0
54 87 111 104 87 98 72 6 0 9 15 4 0 0 0 0 0 0 0 0 0 0 0 0 0 0 0 0 0 7 2 0 0 0 0 0 0 0 0 0 0 0 0 0
79 99 114 109 92 102 71 8 1 1 2 1 4 1 0 3 2 0 0 0 0 0 0 0 0 0 0 0 0 16 9 7 0 0 0 0 0 0 0 0 0 0 0 0
92 100 104 79 80 90 38 0 36 45 10 4 5 7 0 5 2 4 0 0 0 0 0 0 0 0 0 0 0 0 13 0 0 0 0 0 0 0 0 0 0 0 0 0
98 97 73 76 71 79 23 14 2 102 64 24 2 0 0 0 2 0 0 0 0 0 0 0 0 0 0 0 0 0 0 0 0 0 0 0 0 0 0 0 0 0 0 0
99 78 66 67 75 81 34 40 48 40 62 9 6 3 1 1 0 0 0 0 0 0 0 0 0 0 0 0 0 0 1 1 0 0 0 0 0 0 0 0 0 0 0 0
104 101 94 86 85 81 24 48 26 31 16 65 2 6 0 0 0 0 0 0 0 0 0 0 0 0 0 0 0 0 9 0 0 0 0 0 0 0 0 0 0 0 0 0
72 68 79 91 86 93 48 25 57 19 20 12 9 9 0 0 0 0 0 0 0 0 0 2 5 0 0 0 0 0 4 0 0 0 6 0 0 0 0 0 0 0 0 0
62 62 51 70 86 91 56 19 32 35 16 14 22 6 10 0 0 0 0 0 0 0 0 12 15 3 0 0 3 1 6 49 22 3 6 0 0 0 0 10 0 0 0 0
65 68 63 54 56 66 48 17 14 8 2 6 6 19 3 0 0 0 0 0 0 0 0 2 8 0 0 0 0 23 17 9 9 5 10 0 0 0 97 9 0 0 0 0
57 60 64 56 32 49 59 5 27 4 19 14 0 3 0 0 0 0 0 0 0 0 0 0 0 0 0 0 0 0 0 0 0 0 0 0 0 0 1 0 2 0 0 0
59 64 70 74 65 46 39 18 1 1 2 8 1 0 0 0 0 0 0 0 0 0 0 0 0 0 0 0 0 0 0 0 0 0 0 0 0 0 0 0 0 0 0 0
52 52 69 71 75 67 45 14 7 6 8 2 5 0 0 0 0 15 0 0 11 0 0 0 0 4 0 0 0 0 0 0 0 0 0 0 0 0 0 0 0 0 0 0
98 71 49 74 82 85 26 16 6 1 3 2 0 0 0 0 0 0 2 26 14 17 23 5 12 0 6 0 0 0 0 1 1 0 0 1 0 0 0 0 0 0 0 0
97 122 118 89 70 62 4 7 11 11 36 16 0 0 0 0 0 0 0 32 49 20 14 2 0 2 8 14 0 0 0 0 0 0 0 0 0 0 0 0 0 0 0 0
83 114 137 104 56 0 0 0 0 8 3 8 0 0 9 0 1 0 1 13 40 1 10 14 1 2 27 0 0 1 0 0 0 0 0 0 0 0 0 0 0 0 0 0
61 84 104 59 11 23 37 0 1 0 3 0 0 7 52 17 15 13 6 5 12 8 2 0 0 0 0 4 0 2 1 0 0 0 0 1 0 0 0 0 0 0 0 0
77 55 8 8 1 10 12 11 0 0 0 0 0 1 13 1 2 1 0 0 0 0 0 0 0 0 2 1 2 2 4 5 6 3 0 0 1 0 1 0 0 0 0 1
8 2 1 0 14 13 12 1 1 0 0 2 0 1 1 5 0 0 0 0 0 0 0 0 0 1 2 2 1 2 4 6 4 5 0 0 1 2 2 1 1 2 2 1
0 3 2 9 0 0 0 0 0 1 0 2 0 0 1 0 0 0 0 0 0 0 0 0 0 1 1 0 0 2 3 2 1 2 1 1 2 2 2 1 2 2 1 2
2 4 2 0 1 0 0 0 0 0 2 3 0 0 0 0 0 0 0 0 0 0 1 0 0 5 1 2 1 3 3 2 1 2 2 3 3 3 3 3 2 3 2 1
0 0 0 0 0 0 0 0 0 0 0 0 0 0 0 0 0 0 0 1 0 0 0 0 0 1 1 5 2 2 1 1 2 3 3 3 2 2 2 1 0 0 0 0
0 0 0 0 0 0 0 0 0 0 0 0 0 0 0 0 0 0 0 0 0 0 0 0 1 3 2 2 4 0 1 1 1 0 0 0 0 0 0 0 0 0 0 0
0 0 0 0 0 0 0 0 0 0 0 0 0 0 0 0 0 0 0 0 0 0 0 0 0 0 0 0 1 1 1 0 0 0 0 0 0 0 0 0 0 0 0 0
0 0 0 0 0 0 0 0 0 0 0 0 0 0 0 0 0 0 0 0 0 0 0 0 0 0 0 0 0 0 0 0 0 0 1 0 0 0 0 0 0 0 0 0
0 0 0 0 0 0 0 0 0 0 0 0 0 0 1 0 0 0 0 0 0 0 0 0 0 0 0 0 0 0 0 0 0 0 0 0 0 0 0 0 1 1 1 0

GFSNW_con_sbcape_063.txt.gz
CAPE
53 49 40 35 29 86 39 50 42 29 55 33 46 47 2 0 0 0 0 0 0 0 0 0 0 0 0 0 0 0 0 0 0 0 0 0 0 0 0 0 0 0 0 0
63 51 24 41 59 91 22 103 40 47 68 30 21 55 0 0 0 0 0 0 0 0 0 0 0 0 0 0 0 0 1 0 0 0 0 0 0 0 0 0 0 0 0 0
72 53 28 47 51 90 58 58 61 38 61 31 18 17 4 0 0 0 0 0 0 0 0 0 0 0 0 0 0 2 10 5 0 0 0 0 0 0 0 0 0 0 0 0
59 47 36 50 106 115 56 36 9 29 5 7 17 2 0 0 0 0 0 0 1 2 0 0 0 0 0 0 0 7 29 2 0 0 0 0 0 0 0 0 0 0 0 0
60 42 60 89 119 131 65 9 119 64 8 25 10 29 3 0 0 3 0 0 0 0 0 0 0 0 0 0 0 0 0 30 12 1 0 0 0 0 0 0 0 0 0 0
51 53 78 102 125 133 53 41 15 74 3 14 16 48 0 0 0 0 1 0 0 0 0 0 0 0 0 0 0 0 0 7 6 0 0 0 0 0 0 0 0 0 0 0
72 84 88 104 115 116 47 39 68 57 21 45 36 18 0 0 0 0 0 0 2 0 0 0 0 0 0 0 0 0 0 1 0 0 0 0 0 0 0 0 0 0 0 0
84 81 86 89 69 72 31 36 69 51 26 12 55 18 6 18 3 3 0 1 0 0 3 2 0 0 0 0 0 0 0 0 11 0 0 0 0 0 0 0 0 0 0 0
74 71 57 50 66 72 36 28 42 66 6 2 0 55 21 0 3 2 0 11 8 10 3 4 7 0 0 0 1 0 0 0 60 9 5 0 0 0 0 0 0 0 0 0
67 77 79 66 68 81 45 28 35 49 4 1 0 12 63 1 1 2 0 1 3 14 19 29 27 18 0 0 0 1 12 22 17 18 17 0 0 0 0 0 0 0 0 0
55 36 48 60 47 68 47 22 25 31 3 1 18 21 11 10 1 1 0 6 5 6 17 20 3 3 0 0 0 9 0 8 23 33 42 1 0 7 12 0 0 0 0 0
52 54 45 38 21 48 64 20 40 8 14 8 0 2 8 1 5 5 5 2 0 0 0 0 0 0 0 0 0 0 0 4 31 8 23 0 0 1 0 0 0 0 0 0
29 58 61 57 46 35 47 1 21 15 5 6 15 3 0 0 0 0 13 0 0 0 0 0 0 0 0 2 0 0 0 0 1 0 0 0 0 0 0 0 0 0 0 0
42 46 66 54 53 31 5 9 0 1 5 33 21 0 0 0 4 0 0 20 13 0 3 0 0 11 0 3 7 0 0 0 0 0 0 0 0 0 0 0 0 0 0 0
42 50 70 70 57 51 26 18 7 0 7 6 9 4 0 0 6 19 27 40 47 91 50 0 21 0 22 0 0 6 1 3 12 8 0 0 0 0 0 0 0 0 0 0
56 86 94 75 48 49 14 5 15 15 23 11 46 0 0 0 15 28 29 31 50 56 46 25 12 1 37 0 0 0 0 0 0 0 0 0 0 0 0 0 0 0 0 0
71 87 79 73 40 12 10 0 0 10 34 4 8 8 9 0 1 0 8 39 54 64 44 37 31 61 50 2 5 0 0 0 0 0 0 0 1 2 0 0 0 0 0 0
95 105 76 85 23 21 26 0 6 1 14 6 6 3 19 6 4 13 27 28 29 16 7 5 16 23 22 0 2 0 0 0 0 0 0 1 0 0 0 0 0 0 1 1
131 118 40 4 8 5 15 3 18 1 4 0 2 10 7 12 8 7 0 13 1 1 0 2 4 4 16 3 2 2 2 3 5 2 0 0 1 0 0 0 2 0 1 1
6 1 2 0 5 23 20 17 3 2 0 5 0 3 7 5 1 0 0 1 1 15 2 3 1 1 3 3 3 1 1 6 5 3 0 0 0 1 0 1 2 3 3 2
1 3 2 14 11 0 1 5 0 0 0 3 0 0 4 2 2 1 0 2 1 4 1 1 1 2 3 2 1 1 3 2 2 4 3 2 2 2 2 1 4 4 3 3
7 1 1 0 0 0 0 0 1 2 4 4 5 1 3 2 0 2 1 3 1 1 1 0 0 6 3 3 2 1 2 2 3 3 2 2 2 2 2 3 3 4 3 2
0 0 0 0 0 0 0 0 0 0 1 1 0 6 1 1 0 0 0 0 0 0 0 0 3 3 2 4 3 3 4 2 2 3 3 2 3 3 2 2 3 2 1 2
0 0 0 0 0 0 0 0 0 0 2 1 1 2 0 0 0 0 0 0 0 0 0 0 3 3 4 4 6 1 3 2 2 3 3 2 1 1 1 1 1 0 1 1
0 0 0 0 0 0 0 0 0 2 2 1 0 0 0 0 0 0 0 0 0 0 0 0 1 1 1 1 3 3 2 2 2 3 2 1 1 0 1 1 1 1 0 1
0 0 0 0 0 0 0 0 0 1 0 0 0 0 0 0 0 0 0 0 0 0 1 2 0 0 0 1 1 1 1 2 2 3 3 2 1 1 2 2 1 1 1 1
0 0 0 0 0 0 0 0 0 1 0 0 0 0 1 0 0 0 0 0 0 0 1 1 1 1 1 1 1 1 1 1 1 2 3 2 2 1 0 0 2 2 1 2

GFSNW_con_sbcape_069.txt.gz
CAPE
97 78 6 80 50 87 49 66 81 81 112 79 71 35 29 17 8 9 2 1 13 32 45 52 10 68 1 0 0 0 0 5 12 21 23 0 1 10 24 44 18 40 108 69
177 122 101 71 54 56 83 58 67 101 162 78 85 47 30 27 19 17 37 31 16 40 45 42 29 37 8 0 0 0 0 27 1 3 13 11 9 9 18 19 9 2 74 34
19 128 7 64 94 58 126 119 86 65 173 80 54 57 55 31 37 26 45 59 62 73 74 94 31 10 0 0 0 9 2 28 24 27 10 9 21 17 23 36 81 15 39 54
98 139 55 72 93 76 147 101 76 36 64 79 62 64 42 35 40 34 35 69 76 56 54 66 54 33 18 3 0 0 9 39 42 15 26 34 1 1 11 21 25 18 7 7
95 118 62 126 75 67 186 91 67 69 63 56 57 64 56 47 46 42 54 76 61 80 80 86 64 29 26 17 3 5 7 16 19 44 25 34 38 14 0 0 1 7 5 1
73 79 44 101 75 65 117 91 81 112 28 68 75 65 54 38 56 32 51 98 103 94 85 101 117 81 42 26 5 2 1 11 29 66 8 10 9 12 16 10 10 28 32 11
62 65 101 108 108 77 149 113 109 92 39 47 64 22 74 56 44 78 43 160 107 129 121 113 86 41 25 23 8 2 0 8 5 22 21 2 44 7 2 16 5 4 7 4
107 102 90 105 119 113 194 107 151 110 71 62 33 50 51 50 53 75 169 144 110 142 98 98 57 47 23 24 6 6 0 9 31 4 19 4 0 0 22 51 3 0 5 5
101 83 77 92 102 134 144 183 162 143 188 61 55 55 50 56 72 153 112 140 40 0 98 192 90 67 35 34 23 1 4 1 54 64 20 9 0 3 0 0 1 0 1 0
38 56 63 76 87 111 152 31 166 116 107 6 101 101 82 59 56 92 178 116 50 16 80 146 97 91 45 53 51 7 22 21 11 28 41 16 43 36 26 32 10 10 8 11
49 50 55 76 77 72 187 61 132 101 64 15 21 68 84 91 43 251 160 49 47 29 194 124 90 69 69 41 63 19 20 36 33 29 30 17 69 13 60 44 34 26 4 1
35 37 46 53 57 37 94 87 149 156 84 51 123 26 50 129 19 50 34 36 33 75 71 157 92 75 62 48 46 70 49 11 66 5 22 104 124 68 6 17 12 1 0 0
52 22 42 45 45 55 53 31 56 78 22 49 105 42 47 36 91 115 81 45 37 61 50 78 129 94 82 65 70 44 20 53 39 68 128 35 84 31 3 11 2 0 0 0
26 43 29 33 45 77 37 25 38 38 28 89 58 8 5 48 46 71 83 38 115 66 144 85 92 94 44 78 33 52 31 11 5 26 16 82 86 11 7 6 3 0 0 0
32 38 47 39 44 42 35 32 42 56 57 65 15 47 15 3 3 41 55 48 71 64 75 83 86 59 69 29 30 51 41 70 41 119 18 33 19 6 2 1 2 1 0 0
41 49 37 36 43 43 16 3 28 32 140 77 123 26 26 7 6 12 37 50 34 41 29 89 69 73 87 65 53 72 5 0 0 6 0 1 1 0 0 0 0 0 0 0
40 45 13 56 47 10 29 46 2 27 54 56 37 45 33 34 47 74 85 68 37 24 12 81 60 60 57 61 47 5 1 0 1 0 0 2 0 2 0 0 0 0 0 0
42 42 37 25 15 32 36 8 11 25 43 47 118 52 49 34 53 67 48 32 18 20 24 65 75 67 81 63 3 1 1 0 2 0 0 6 2 0 0 0 0 0 1 2
62 40 11 7 16 25 45 16 31 74 46 117 103 145 77 46 42 35 34 23 8 21 6 27 88 47 10 7 4 4 4 1 0 0 1 2 2 0 0 0 0 0 1 2
54 3 3 0 41 13 8 0 4 10 41 74 64 62 63 36 58 51 52 34 82 4 19 19 125 11 3 3 3 3 2 1 2 3 1 0 2 5 4 2 1 1 2 3
5 4 8 15 14 24 21 43 54 83 109 78 56 52 60 18 54 102 90 130 68 43 41 36 20 8 6 2 3 3 4 4 4 3 2 4 1 5 4 5 6 5 5 7
23 2 1 0 13 12 44 143 52 66 69 25 23 30 41 13 26 55 7 48 41 36 10 37 11 10 4 5 4 5 5 5 5 5 4 4 4 10 6 6 8 10 8 8
0 0 1 9 1 42 40 7 13 9 11 6 27 26 9 21 1 16 47 70 28 7 22 10 13 11 4 8 7 7 7 7 6 8 6 5 8 9 8 9 11 11 9 11
0 0 0 10 7 5 6 14 12 9 14 6 17 3 5 2 8 17 8 6 11 14 9 8 15 14 13 9 9 8 8 7 6 8 7 6 6 7 6 6 7 5 4 5
0 0 3 8 13 13 11 9 15 13 9 7 31 11 10 9 8 4 5 6 2 3 10 17 20 14 13 14 13 7 5 6 7 8 7 6 4 3 6 6 6 5 4 5
1 4 14 7 22 20 14 15 14 10 7 10 7 4 5 7 9 5 3 2 4 12 21 19 15 12 11 9 8 7 8 9 9 10 8 7 4 5 7 5 5 5 5 4
5 15 18 19 12 19 17 17 12 9 10 13 9 5 3 0 6 4 9 8 16 20 28 29 22 12 11 9 8 9 11 9 9 8 9 9 9 9 8 7 13 3 3 1

GFSNW_con_sbcape_072.txt.gz
CAPE
57 61 61 28 1 50 76 58 52 59 162 64 39 30 28 13 5 2 0 0 0 0 1 17 29 43 19 0 0 0 5 8 0 0 0 10 11 0 0 10 0 0 36 52
79 58 72 89 81 37 32 163 21 48 224 43 74 28 27 22 16 3 2 4 0 0 0 8 21 34 19 0 0 0 0 5 0 0 0 4 7 0 0 2 19 26 58 0
84 72 50 90 73 83 23 191 57 35 227 54 44 29 41 30 25 5 8 12 16 22 7 11 41 45 45 1 0 0 2 5 3 4 1 3 6 3 1 10 1 18 5 37
82 83 23 62 35 102 29 159 32 37 54 85 42 19 48 33 32 16 12 15 11 22 72 43 58 36 3 0 0 0 4 56 43 7 0 3 8 1 0 3 12 27 1 0
85 69 100 142 18 96 41 239 16 13 50 41 45 19 16 20 31 40 10 41 25 22 40 45 39 48 9 45 22 1 9 8 1 0 0 0 14 6 1 0 0 33 8 0
77 76 89 111 125 112 58 34 22 77 28 47 33 77 28 11 16 8 32 18 64 50 62 63 60 80 43 75 44 23 3 5 28 2 11 4 6 2 0 0 0 0 13 0
75 82 111 182 90 89 93 84 81 105 17 15 33 37 38 37 45 37 11 24 43 94 70 77 95 62 48 71 57 15 13 12 11 5 2 2 0 1 1 42 27 6 0 0
43 96 98 104 126 61 144 3 150 89 48 24 11 7 10 54 43 40 28 15 41 113 64 68 53 75 54 29 7 1 6 38 9 22 8 2 0 2 22 37 41 10 1 1
68 66 98 81 99 64 151 104 216 106 183 27 28 18 12 31 59 52 75 178 95 12 13 34 44 33 29 36 31 3 9 26 51 36 15 7 0 6 0 0 7 4 2 9
56 37 40 85 87 84 69 27 213 127 51 2 2 65 79 74 38 57 62 83 54 22 7 8 91 69 49 51 31 9 17 32 19 59 41 9 18 19 15 5 12 11 2 0
79 60 41 81 74 85 113 34 170 106 55 10 10 18 25 104 117 143 121 26 45 12 2 12 82 108 76 70 52 14 15 37 39 34 43 29 13 1 41 48 42 2 0 0
50 58 55 38 62 72 82 41 92 185 74 4 21 12 16 17 5 43 3 34 8 14 57 74 165 183 164 81 45 77 40 16 57 1 5 88 53 18 12 14 2 0 0 0
47 46 54 59 52 71 34 52 138 138 57 27 3 0 0 0 59 104 41 43 13 19 144 73 79 114 161 132 90 30 43 51 68 65 92 58 3 2 6 1 2 0 0 0
34 37 48 36 49 52 71 10 48 74 44 16 0 0 10 0 32 85 134 74 56 60 192 29 34 127 111 125 82 66 27 19 58 23 14 8 2 0 6 1 0 0 1 0
33 40 50 41 42 50 38 8 49 48 7 5 1 2 7 38 0 26 45 49 43 38 37 49 35 45 50 39 155 33 10 19 113 38 3 15 4 1 2 0 0 0 0 0
40 39 50 50 42 50 2 1 29 41 34 61 103 8 13 59 12 9 4 32 13 40 31 25 54 34 31 120 61 14 1 0 0 0 0 4 3 1 1 1 0 0 0 0
38 41 46 17 33 22 9 33 11 11 55 31 81 38 64 35 7 13 46 53 32 22 20 20 44 42 61 88 19 2 0 2 0 0 0 0 1 1 0 0 1 0 0 0
44 46 16 18 22 7 20 44 2 11 29 50 99 41 40 38 42 38 72 23 24 11 18 27 53 86 79 7 3 1 0 0 0 0 0 1 1 0 0 0 0 1 1 1
34 14 37 18 10 15 47 0 14 39 25 97 97 34 74 38 44 30 36 8 8 9 12 18 75 8 4 6 2 1 2 1 1 0 0 0 0 0 0 1 1 2 2 1
14 0 2 0 8 12 16 1 1 4 8 75 71 49 49 30 73 35 3 21 30 51 20 16 3 5 1 1 0 1 2 2 1 1 0 1 2 6 1 1 2 2 3 1
1 4 8 21 20 31 10 8 26 32 63 32 70 18 11 39 50 23 49 18 64 46 7 17 10 7 2 0 0 1 1 2 2 1 2 2 4 4 2 3 3 3 2 5
4 2 8 9 14 25 66 28 81 50 46 46 92 50 41 39 3 34 22 44 63 46 25 9 6 7 1 2 2 3 6 5 3 4 5 5 4 2 2 3 5 5 6 4
3 0 6 39 4 73 61 7 13 37 14 7 25 30 28 17 8 50 48 15 24 3 21 5 8 4 3 6 5 3 3 3 4 5 5 3 3 3 3 4 4 2 2 2
0 0 0 8 3 4 6 9 7 8 18 9 9 10 17 7 1 13 0 3 4 12 11 4 10 7 5 5 5 3 7 6 3 5 5 6 6 6 3 3 1 0 1 1
0 0 3 3 4 4 5 9 16 5 7 3 15 37 7 1 4 5 2 2 1 3 6 12 13 11 12 11 8 7 8 10 9 7 7 5 3 4 5 3 2 1 0 1
0 3 14 9 27 24 12 18 10 8 8 1 28 1 3 2 7 4 1 7 3 8 9 12 9 9 9 9 9 10 8 8 7 7 5 4 3 4 4 4 3 1 2 0
5 9 8 20 13 15 12 11 8 17 8 37 23 3 3 1 2 0 5 7 12 17 18 14 10 7 8 7 8 8 6 6 5 7 6 6 5 3 3 3 3 0 0 0

GFSNW_con_sbcape_075.txt.gz
CAPE
60 74 68 62 68 28 17 41 34 0 77 18 39 4 0 0 0 0 0 0 0 0 0 0 0 9 26 0 0 0 0 29 4 0 0 12 3 19 12 22 13 0 0 0
58 68 72 68 65 64 46 56 16 0 100 13 15 13 7 0 0 0 0 0 0 0 0 0 0 39 0 0 0 0 0 20 14 0 0 4 7 5 17 7 5 5 2 0
53 59 64 75 62 81 23 6 16 1 0 0 18 6 13 7 0 0 0 0 0 2 6 2 0 12 32 0 0 0 0 0 0 1 6 4 8 19 15 12 28 1 1 19
47 66 75 68 46 75 16 4 41 32 26 38 18 8 18 38 12 16 12 2 0 0 0 9 16 10 80 12 0 0 0 4 0 3 0 4 4 8 20 12 5 12 0 18
55 52 63 66 70 21 23 52 24 41 29 5 49 2 2 2 2 3 19 33 20 27 0 0 7 16 17 14 8 6 1 2 0 0 0 0 5 19 6 25 4 15 9 4
51 46 66 72 74 22 5 8 0 14 5 9 19 36 4 7 12 1 1 21 20 17 34 14 11 1 13 20 19 8 2 0 0 0 0 0 10 9 17 8 18 10 16 2
55 54 61 72 76 62 6 10 7 15 0 0 2 0 0 48 7 6 20 21 26 41 35 10 23 11 12 27 34 21 6 5 0 4 0 12 0 0 1 13 16 12 19 5
66 74 60 71 63 62 10 6 16 23 1 0 0 0 3 4 9 8 13 21 12 0 10 1 2 0 3 0 0 6 1 7 0 8 8 0 2 4 3 35 2 0 1 9
83 69 50 18 62 46 13 0 7 8 5 0 0 10 13 1 0 0 3 21 3 0 0 0 1 3 3 8 4 0 0 0 0 16 16 10 6 0 0 0 6 0 4 9
81 69 47 33 68 43 18 5 5 19 38 0 0 3 2 0 1 1 0 31 28 0 0 1 3 5 3 2 1 0 0 9 11 3 1 0 53 4 0 1 10 44 14 8
76 78 56 16 42 93 20 4 12 7 4 0 0 0 1 4 9 31 6 10 11 0 0 0 0 0 12 35 2 0 0 16 2 11 5 0 45 16 14 29 28 2 0 0
54 64 65 61 64 103 45 3 0 18 28 0 0 0 0 0 0 16 2 2 3 12 2 1 2 14 13 7 13 0 9 1 0 0 0 16 1 20 0 0 0 0 0 0
39 53 52 60 68 46 49 6 1 20 23 1 0 0 0 0 0 7 1 16 12 1 42 14 10 19 15 6 8 3 25 8 35 26 47 10 0 0 0 0 0 0 0 0
50 55 50 53 73 60 53 3 1 1 4 0 0 0 0 0 0 1 0 0 47 17 19 15 5 4 26 2 11 5 5 13 21 7 2 2 3 0 0 0 0 0 0 0
39 46 53 49 70 92 37 2 2 1 0 11 1 0 0 0 0 0 0 6 21 13 0 18 5 27 15 10 20 14 24 5 1 11 10 5 4 0 0 0 0 0 0 0
38 42 49 55 44 47 2 1 1 13 13 5 0 0 0 0 0 0 0 2 1 0 34 13 3 28 4 1 17 17 6 0 1 5 3 0 0 0 0 0 0 0 0 0
33 38 45 44 56 5 0 0 0 5 27 7 5 1 3 1 7 0 6 11 7 4 3 8 0 26 23 2 3 7 4 0 0 0 0 0 0 0 0 0 0 0 0 0
34 41 42 42 30 10 2 18 0 9 11 30 16 9 14 16 7 12 16 21 5 7 10 5 15 8 7 0 2 0 0 0 0 0 0 0 0 0 0 0 0 0 1 0
53 41 15 3 2 4 13 5 11 23 2 5 3 2 23 8 13 12 10 4 0 3 4 0 2 3 0 5 1 0 0 1 0 0 0 0 0 0 0 0 0 1 3 2
5 0 2 0 6 26 17 0 3 1 16 27 19 17 18 7 5 0 1 2 1 9 0 0 0 4 1 0 0 0 0 0 0 0 2 1 6 1 0 1 1 1 1 0
0 1 3 5 18 6 3 0 1 5 3 2 11 0 1 0 5 1 0 0 1 6 1 5 2 3 5 0 0 0 0 0 0 0 1 1 1 1 2 2 2 1 0 1
0 4 0 0 6 8 3 2 1 0 0 0 5 1 12 8 4 0 1 1 0 2 1 0 0 6 0 0 0 0 1 0 0 0 1 1 1 1 2 3 3 2 1 0
1 0 0 10 1 1 0 1 1 5 1 0 13 5 3 1 8 2 5 2 1 0 0 0 0 1 0 2 0 0 0 0 1 1 1 0 0 0 0 0 0 0 0 0
0 0 0 0 0 0 0 0 0 0 1 2 0 1 0 0 0 0 0 0 0 2 0 0 0 0 0 0 0 0 0 0 0 0 0 0 0 0 0 0 0 0 0 0
0 0 0 0 0 0 0 0 0 0 0 0 5 0 0 0 0 0 0 0 0 0 0 0 0 0 0 0 0 0 0 0 0 0 0 0 0 0 0 0 0 0 0 0
0 0 2 1 1 0 0 1 0 1 0 0 0 0 0 0 0 0 0 0 0 0 0 0 0 0 0 0 0 0 0 0 0 0 0 0 0 0 0 0 0 0 0 0
0 0 0 0 0 1 1 0 0 0 0 0 0 0 0 0 0 0 0 0 0 0 0 0 0 0 0 0 0 0 0 0 0 0 0 0 0 0 0 0 0 0 0 0

GFSNW_con_sbcape_078.txt.gz
CAPE
48 48 48 58 51 58 1 13 12 0 0 9 15 1 0 0 0 0 0 0 0 0 0 0 0 8 26 0 0 0 0 1 0 0 0 4 22 11 29 2 5 5 0 0
45 47 48 52 54 55 10 35 2 0 24 3 0 0 6 7 0 0 0 2 0 0 0 0 0 29 0 0 0 0 0 4 0 0 0 18 5 7 14 46 12 40 5 1
50 48 39 51 55 85 3 30 4 0 0 0 21 2 0 8 0 0 0 0 0 0 0 0 0 11 35 3 0 0 0 0 0 0 0 3 18 6 4 30 5 1 0 4
31 42 53 60 80 75 1 4 0 6 14 5 10 10 6 7 3 2 1 4 0 0 0 0 0 0 17 17 8 0 1 1 0 0 0 0 0 7 14 12 12 21 0 3
37 47 64 64 83 67 29 13 6 23 105 18 16 26 1 14 7 67 25 38 55 4 2 0 1 0 2 10 0 1 0 0 0 0 0 20 9 8 1 0 17 8 8 16
49 46 42 61 85 17 6 12 1 28 2 1 9 15 5 66 47 1 0 0 0 8 27 25 6 0 0 8 10 5 2 5 0 0 0 0 1 0 0 1 8 10 10 0
42 47 56 65 93 30 6 19 11 2 0 0 1 7 3 8 7 11 0 6 2 23 45 15 1 0 0 0 4 8 5 4 0 0 0 1 4 0 7 21 6 6 27 41
44 35 47 100 94 91 2 0 10 20 3 5 0 10 12 5 2 0 7 21 3 0 4 0 0 0 0 0 0 0 0 0 1 0 1 0 0 7 22 3 7 3 4 17
57 42 32 57 24 62 0 0 0 19 4 1 1 0 11 0 0 0 0 9 0 0 0 0 0 0 0 0 0 0 0 0 1 13 3 0 0 7 5 10 3 14 10 16
49 32 44 57 48 28 0 3 0 22 10 0 0 0 0 0 1 3 1 0 3 0 0 0 0 0 1 2 1 3 0 1 6 1 16 0 2 52 25 1 17 13 3 1
45 40 53 59 34 24 11 1 0 1 3 0 0 0 0 0 0 4 0 1 19 0 2 0 0 0 0 1 15 24 0 0 6 13 35 3 61 23 7 25 21 12 11 12
54 55 59 58 57 61 35 3 0 0 8 0 0 0 0 0 0 1 6 26 12 4 0 0 0 0 1 18 31 1 11 0 0 0 0 63 7 4 8 5 7 0 0 0
42 56 65 44 69 51 33 3 0 1 16 0 0 0 0 0 0 0 0 25 4 10 7 28 50 19 8 4 5 17 2 6 17 23 11 11 4 2 0 0 0 0 0 0
51 65 55 54 67 69 49 0 0 0 0 0 0 0 0 0 0 0 0 2 0 16 11 20 16 7 10 4 14 10 25 10 5 7 2 14 11 6 0 0 0 0 0 0
45 54 46 55 55 106 37 4 0 0 0 0 0 0 0 0 0 0 0 0 5 21 2 4 29 10 27 6 9 5 23 14 11 7 8 12 15 1 0 0 0 0 0 0
39 43 47 47 50 75 5 1 1 0 0 4 0 0 0 0 0 0 0 0 5 2 5 24 0 20 1 3 4 6 6 4 5 15 6 1 0 0 0 0 0 0 0 0
40 39 39 42 33 0 0 0 0 4 3 36 0 0 0 0 0 0 0 0 0 0 10 9 0 12 6 2 2 3 5 11 4 1 5 0 0 0 0 0 0 0 0 0
44 45 41 35 10 1 7 10 2 5 6 17 1 0 0 4 1 7 0 20 13 16 17 4 3 8 1 1 7 5 1 0 0 0 0 0 0 0 0 0 0 0 2 1
53 44 43 3 2 4 0 0 13 12 0 0 3 1 7 4 7 4 3 8 0 2 4 1 0 1 0 3 1 0 0 0 0 0 0 0 0 0 0 0 0 0 2 1
7 0 1 0 15 22 19 16 3 3 3 38 8 1 27 8 1 1 1 0 2 4 0 0 0 2 3 0 0 0 0 0 0 0 0 1 0 0 0 2 0 0 0 0
0 1 1 12 9 1 3 0 0 4 2 0 0 0 12 5 0 0 0 1 0 4 0 0 0 2 3 1 2 0 0 0 1 0 1 0 0 1 1 1 1 1 0 0
0 0 4 7 2 3 2 1 0 0 0 0 3 0 1 0 0 0 0 0 0 1 1 0 0 3 0 0 1 1 0 0 0 0 1 1 2 1 1 2 1 0 0 0
0 0 0 2 0 0 0 0 0 2 2 0 9 2 0 1 2 0 0 0 0 0 0 0 0 2 1 1 0 1 0 0 0 2 1 1 0 0 0 0 0 0 0 0
0 0 0 0 0 0 0 0 0 0 0 0 0 0 0 0 0 0 0 0 0 0 0 0 0 0 0 0 0 0 0 0 0 0 0 0 0 0 0 0 0 0 0 0
0 0 0 0 0 0 0 0 0 0 0 0 0 0 0 0 0 0 0 0 0 0 0 0 0 0 0 0 0 0 0 0 0 0 0 0 0 0 0 0 0 0 0 0
0 0 1 0 0 0 0 0 0 0 0 0 0 0 0 0 0 0 0 0 0 0 0 0 0 0 0 0 0 0 0 0 0 0 0 0 0 0 0 0 0 0 0 0
0 0 0 0 0 0 0 0 0 0 0 0 0 0 0 0 0 0 0 0 0 0 0 0 0 0 0 0 0 0 0 0 0 0 0 0 0 0 0 0 0 0 0 0

GFSNW_con_sbcape_081.txt.gz
CAPE
33 34 27 24 38 44 0 0 0 0 0 6 2 4 4 1 0 0 0 0 5 19 5 0 0 4 12 0 0 0 0 3 0 0 0 0 13 10 43 31 83 15 3 0
35 33 39 37 41 32 0 0 11 0 0 0 5 2 9 2 0 0 0 18 8 0 2 4 2 7 0 0 0 0 0 3 0 0 0 27 29 17 5 25 8 0 3 0
25 22 28 39 51 43 0 11 0 0 0 0 0 0 8 1 0 4 0 1 0 0 0 0 0 2 18 1 0 0 0 0 1 0 0 0 0 1 1 6 29 30 0 0
14 7 17 46 67 44 0 13 0 0 0 1 11 0 0 0 0 0 0 1 0 0 3 0 0 11 6 0 8 0 0 0 0 0 0 0 0 0 0 8 0 9 0 3
24 30 41 49 33 50 14 1 4 0 6 35 18 5 32 19 0 40 1 0 16 10 1 6 8 1 1 16 0 0 0 0 0 0 0 0 0 0 0 0 0 18 4 1
21 29 48 62 81 13 18 6 0 84 0 3 5 6 16 11 15 13 8 0 3 0 6 7 1 0 0 0 0 0 0 0 0 0 0 0 0 0 1 6 3 0 5 0
25 41 45 54 64 26 0 0 36 48 0 3 1 11 4 31 11 17 32 2 4 0 21 0 0 0 0 0 0 0 0 0 0 0 0 0 0 0 0 9 2 1 9 0
52 49 56 49 61 64 1 0 6 43 6 7 6 0 20 13 0 4 1 10 8 0 0 0 0 0 0 0 0 0 0 2 9 10 1 0 0 0 10 10 1 0 2 1
53 45 39 42 51 73 1 0 0 2 0 0 0 0 0 0 12 6 0 0 0 0 0 0 0 0 0 0 0 0 0 0 9 2 13 0 0 1 1 4 1 8 0 10
52 43 40 41 50 77 15 0 0 1 8 0 0 0 0 0 0 0 10 0 7 0 0 0 0 0 0 0 0 0 0 0 3 1 13 0 0 75 11 6 17 13 6 5
49 50 45 43 51 63 10 0 0 0 0 0 0 0 0 0 0 0 0 0 0 0 0 0 0 0 0 0 0 0 0 0 0 1 6 1 33 42 2 13 20 18 18 5
56 46 44 37 46 58 19 0 0 0 2 0 0 1 0 0 0 0 0 0 2 4 0 0 0 0 0 0 0 5 12 0 0 0 0 25 2 23 17 3 2 2 12 4
46 46 39 47 46 53 29 0 0 12 16 0 0 0 0 0 0 0 0 0 13 4 12 15 20 3 21 0 4 3 2 5 10 2 14 13 12 8 3 0 0 0 0 0
41 48 48 79 63 71 42 0 0 0 0 0 0 0 0 0 0 0 0 0 0 0 8 25 7 11 15 5 6 7 12 7 12 18 9 12 11 6 11 2 0 0 0 0
47 57 55 48 51 68 31 0 0 0 0 0 0 0 0 0 0 0 0 0 0 19 9 0 11 22 6 4 9 0 12 12 5 6 9 5 19 10 5 0 0 0 0 0
43 52 60 43 47 71 36 1 1 0 0 0 0 0 0 0 0 0 0 0 0 9 24 0 1 4 4 2 2 4 2 4 5 18 7 7 9 2 0 0 0 0 0 0
46 43 44 36 35 6 2 0 0 0 7 19 0 0 0 0 0 0 0 0 1 11 1 0 6 5 7 1 0 2 5 6 7 6 6 1 1 2 0 0 0 0 0 1
38 36 39 30 30 20 7 0 0 7 9 2 1 0 0 1 0 3 0 0 22 5 0 11 16 6 5 0 2 2 1 2 1 3 0 0 0 0 0 0 0 0 1 1
54 41 34 2 0 3 1 0 14 10 0 0 0 0 2 1 3 2 0 0 7 0 3 6 0 0 0 1 0 0 1 0 0 1 0 0 0 0 0 0 0 1 1 1
15 0 1 0 2 19 13 34 2 3 5 16 1 0 3 5 0 1 0 1 3 14 0 1 0 2 2 1 2 0 1 0 0 0 0 0 0 0 1 1 1 1 1 0
0 0 1 6 8 3 4 0 1 1 6 1 0 0 0 0 5 0 0 0 0 1 0 1 0 1 0 1 1 0 0 0 0 0 1 0 0 0 0 1 2 1 0 0
0 1 3 5 2 3 0 0 0 0 0 0 2 4 0 3 2 0 0 0 0 0 2 0 0 0 0 0 1 1 0 0 0 0 0 0 0 0 0 0 0 0 0 0
0 0 0 4 0 2 0 0 1 0 0 0 2 11 0 0 1 0 0 0 0 0 0 0 0 0 1 0 1 1 1 0 1 0 0 0 0 0 0 0 0 0 0 0
0 0 0 0 0 0 0 0 0 0 0 0 0 0 0 0 0 0 0 0 0 0 0 0 0 0 0 0 0 0 0 0 0 0 0 0 0 0 0 0 0 0 0 0
0 0 0 0 0 0 0 0 0 0 0 0 0 0 0 0 0 0 0 0 0 0 0 0 0 0 0 0 0 0 0 0 0 0 0 0 0 0 0 0 0 0 0 0
0 0 0 0 0 0 0 0 0 0 0 0 0 0 0 0 0 0 0 0 0 0 0 0 0 0 0 0 0 0 0 0 0 0 0 0 0 0 0 0 0 0 0 0
0 0 0 0 0 0 0 0 0 1 0 0 0 0 0 0 0 0 0 0 0 0 0 0 0 0 0 0 0 0 0 0 0 0 0 0 0 0 0 0 0 0 0 0

GFSNW_con_sbcape_084.txt.gz
CAPE
22 24 18 18 32 21 0 0 0 0 0 0 0 1 0 9 0 0 0 11 17 0 0 0 27 14 6 0 0 0 0 0 0 0 0 0 11 4 2 67 11 2 0 0
25 14 15 23 35 15 0 0 0 0 0 0 5 19 9 17 0 0 0 7 2 50 5 3 7 13 5 0 0 0 0 0 0 0 0 16 37 19 25 8 31 13 30 0
15 1 2 15 40 33 0 0 0 0 1 0 0 0 0 1 0 0 0 0 0 0 0 0 0 9 3 3 0 0 0 0 0 0 0 0 0 0 0 22 4 0 7 0
1 0 5 10 38 2 0 0 0 0 0 0 0 2 1 0 0 0 0 1 0 0 6 11 1 2 5 14 10 0 0 0 0 0 0 0 0 0 0 0 0 8 0 0
0 11 23 35 21 16 4 0 0 1 0 0 0 0 0 1 6 28 0 0 0 0 5 1 10 0 6 34 1 0 0 0 0 0 0 0 0 0 0 0 0 0 0 0
36 27 28 50 22 17 5 9 9 26 0 0 0 0 0 12 16 0 0 9 4 0 4 0 2 0 0 2 0 0 0 0 0 0 0 0 0 0 0 0 0 0 4 0
10 15 31 49 61 19 0 0 0 0 0 0 0 1 14 16 28 9 62 10 32 0 0 0 0 0 0 0 2 0 0 0 0 0 0 0 0 0 2 1 0 0 7 3
28 32 48 57 38 44 0 0 0 3 1 0 0 0 8 5 6 13 17 17 2 0 1 0 0 0 0 0 0 0 0 0 0 0 0 0 0 5 0 0 0 2 4 11
27 39 42 42 45 51 1 0 0 0 0 0 0 0 0 0 11 0 2 0 0 0 0 0 0 0 0 0 0 0 0 0 1 0 0 0 0 43 3 7 1 6 4 2
25 36 35 35 34 47 10 6 0 5 0 0 0 0 0 4 2 2 0 0 0 0 0 0 0 0 0 0 0 0 0 0 0 0 6 0 0 4 28 9 9 10 11 3
34 40 38 36 34 56 9 3 0 1 1 0 0 0 0 0 0 1 0 0 0 0 0 0 0 0 0 0 0 0 0 0 0 1 8 0 1 42 22 16 9 4 6 2
55 45 40 28 34 54 13 3 0 0 0 0 0 0 0 0 0 0 0 0 6 6 11 0 1 0 0 0 0 0 6 8 1 0 3 11 9 11 8 3 5 12 5 8
25 31 35 24 27 49 21 0 0 5 28 4 0 0 0 0 0 0 3 0 2 4 5 31 8 19 17 1 0 0 0 14 5 12 15 10 14 15 11 10 7 9 10 10
28 31 33 38 41 69 37 0 0 0 0 0 0 0 0 0 0 0 0 0 7 3 7 10 2 0 8 5 1 0 4 4 5 24 17 2 4 8 7 5 6 2 3 4
26 32 41 50 33 69 19 0 0 0 0 0 0 0 0 0 0 0 0 0 0 3 0 14 0 3 6 7 4 0 3 6 4 7 15 5 7 5 6 3 1 0 0 0
33 29 34 61 34 44 21 0 0 0 0 4 0 0 0 0 0 0 0 0 0 0 5 17 0 1 7 2 1 0 1 2 2 17 9 3 5 5 5 2 1 0 0 0
45 36 48 45 34 1 8 0 0 0 4 16 0 0 0 0 0 0 0 0 0 0 5 0 1 5 7 0 0 2 2 5 6 4 15 4 2 4 0 0 0 0 0 0
42 38 38 35 35 10 16 0 0 4 10 13 0 0 0 0 0 0 0 0 0 3 0 0 9 3 3 0 2 3 1 3 2 2 0 1 0 0 0 0 0 0 0 0
49 42 34 6 0 1 19 2 7 3 1 0 0 0 0 0 2 1 0 0 1 0 0 4 0 0 0 0 1 1 2 0 0 0 0 0 0 0 0 0 0 0 1 1
41 0 0 0 1 17 0 11 1 3 4 19 0 0 0 1 0 0 0 0 0 20 1 0 0 0 1 0 1 1 1 0 0 0 0 0 0 0 1 1 1 1 1 1
0 2 1 7 20 0 3 0 0 0 6 0 0 0 0 2 1 1 0 0 0 4 2 1 0 0 0 0 1 0 0 0 0 1 0 0 0 0 0 1 1 1 0 0
0 0 0 1 1 2 2 0 0 2 0 0 1 0 0 1 1 0 1 0 0 0 2 0 0 0 0 0 1 0 0 0 0 0 0 0 0 0 0 0 0 0 0 0
0 1 0 6 0 0 0 0 3 0 0 0 3 9 1 0 2 0 0 0 0 0 0 0 0 0 0 0 0 1 0 0 0 0 0 0 0 0 0 0 0 0 0 0
0 0 0 0 0 0 0 0 0 0 0 1 6 2 0 0 0 0 0 0 0 0 0 0 0 0 0 0 0 0 0 0 0 0 0 0 0 0 0 0 0 0 0 0
0 0 0 0 0 0 0 0 0 0 0 0 0 0 1 0 0 0 0 0 0 0 0 0 0 0 0 0 0 0 0 0 0 0 0 0 0 0 0 0 0 0 0 0
0 0 0 0 0 0 0 0 0 0 0 0 0 0 0 0 0 0 0 0 0 0 0 0 0 0 0 0 0 0 0 0 0 0 0 0 0 0 0 0 0 0 0 0
0 0 0 0 0 0 0 0 0 0 0 0 0 0 0 0 0 0 0 0 0 0 0 0 0 0 0 0 0 0 0 0 0 0 0 0 0 0 0 0 0 0 0 0

GFSNW_con_sbcape_087.txt.gz
CAPE
15 10 11 14 26 0 0 0 0 0 0 0 1 2 9 7 0 0 0 0 0 0 0 23 10 6 6 1 11 29 2 0 0 0 0 1 17 6 6 2 16 30 5 0
18 11 15 17 27 0 0 0 0 0 0 0 0 0 0 0 0 0 0 1 0 0 1 4 0 5 0 5 11 28 0 0 0 17 12 26 15 10 2 0 3 4 25 4
25 13 3 2 24 8 0 0 0 0 2 0 0 0 0 0 0 1 0 0 0 0 0 3 1 0 2 3 9 0 0 0 0 0 0 0 0 0 0 1 4 0 1 0
12 2 0 6 16 11 0 0 0 0 0 0 0 0 0 0 2 0 0 0 0 0 7 10 1 12 1 5 8 6 0 0 0 0 0 0 0 0 0 0 0 0 0 0
1 0 14 36 17 8 0 0 1 8 5 0 1 0 0 1 6 25 6 9 0 0 0 2 9 37 4 4 8 37 19 2 0 0 0 0 0 0 0 0 0 0 0 0
15 24 33 38 29 1 12 6 12 8 0 0 0 0 0 16 33 1 8 9 21 6 2 28 18 9 1 15 25 59 13 1 0 0 0 0 0 0 0 0 0 2 0 0
17 8 11 29 40 3 0 0 1 7 0 1 0 0 0 9 17 6 5 7 14 11 3 4 6 8 0 0 8 3 0 0 1 0 0 0 0 0 0 5 0 0 11 12
3 15 29 48 54 41 0 0 0 1 2 2 0 0 0 0 1 14 13 11 11 4 10 3 1 0 0 0 0 0 0 0 0 0 0 0 0 26 4 21 1 6 11 10
23 22 27 44 40 42 0 0 0 9 0 0 0 1 0 0 8 0 6 1 1 9 0 0 1 0 0 0 0 0 0 0 8 2 0 0 0 0 6 39 4 12 17 9
28 24 30 33 39 43 13 7 0 11 2 0 0 0 0 4 2 2 0 0 1 0 0 2 0 0 0 0 0 0 0 0 2 3 3 0 5 1 19 14 11 22 20 11
18 20 30 36 39 43 3 2 1 5 0 0 0 0 0 0 0 6 0 0 0 1 1 4 4 1 0 1 0 0 5 1 2 0 1 0 4 0 7 15 8 14 7 8
18 28 41 49 38 54 14 5 2 5 3 0 0 0 0 0 0 1 1 1 11 28 5 7 13 0 0 1 0 0 17 16 3 28 16 12 11 10 12 12 14 14 9 8
39 51 34 42 37 46 17 0 3 6 15 0 0 0 0 0 0 0 4 0 3 17 19 17 30 6 22 12 1 0 0 0 5 2 7 6 7 8 7 5 4 6 7 6
35 28 30 40 47 45 5 0 1 0 0 0 0 0 0 0 0 0 0 0 3 15 22 4 18 2 19 5 1 0 2 4 3 15 11 5 4 8 7 6 7 4 5 7
22 26 32 40 49 49 3 0 0 0 0 0 0 0 0 0 0 0 0 0 0 9 3 9 12 10 38 17 0 0 8 7 7 4 8 2 6 6 6 3 4 4 1 0
34 31 30 37 59 52 8 0 1 0 0 6 1 0 0 0 0 0 0 0 0 5 9 3 2 6 20 4 2 4 3 11 4 17 5 3 4 5 7 3 3 3 0 0
22 30 34 33 43 16 5 1 0 0 2 13 0 0 0 0 0 0 0 0 0 0 5 15 3 3 6 3 1 2 3 10 5 6 4 2 3 4 7 3 1 0 0 0
11 26 25 41 28 16 10 0 1 3 9 2 2 0 0 0 0 0 0 0 1 17 6 0 17 1 3 1 3 3 2 4 4 3 2 3 4 1 0 0 0 0 0 0
15 27 14 2 3 6 12 4 9 6 8 1 2 0 0 0 2 12 3 0 2 0 19 10 1 0 0 2 2 1 1 0 1 0 0 0 0 0 1 1 0 0 1 0
26 0 0 0 1 11 4 4 1 3 4 22 0 0 0 0 6 0 1 1 3 2 9 1 0 1 4 1 2 1 1 0 0 1 1 1 1 2 2 2 1 0 0 0
1 2 1 3 12 1 2 4 9 8 1 2 9 0 0 1 7 1 0 4 7 17 7 10 0 0 2 1 1 0 1 1 1 1 1 0 0 1 1 2 1 0 0 0
0 0 0 2 3 4 3 1 2 2 0 0 2 1 0 2 3 4 8 5 6 4 2 0 0 1 1 0 0 1 1 0 1 0 0 0 0 0 0 0 0 0 0 0
4 1 0 5 2 2 0 0 2 0 0 0 2 4 0 3 10 5 12 5 3 0 0 0 0 3 1 0 0 2 1 0 0 0 0 0 0 0 0 0 0 0 0 0
0 1 0 0 0 0 0 0 0 0 0 0 0 11 4 0 8 2 0 0 0 0 0 0 1 1 1 0 0 0 0 0 0 0 0 0 0 0 0 0 0 0 0 0
0 0 0 1 0 0 0 0 0 0 0 0 1 1 1 0 0 0 0 1 0 0 0 0 1 0 0 0 0 0 0 0 0 0 0 0 0 0 0 0 0 0 0 0
0 0 0 0 0 1 0 0 0 1 0 0 0 0 0 0 0 0 1 0 0 0 0 0 0 0 0 0 0 0 0 0 0 0 0 0 0 0 0 0 0 0 0 0
0 0 0 0 0 0 0 0 0 0 0 0 0 0 0 0 0 0 0 0 0 0 0 0 0 0 0 0 0 0 0 0 0 0 0 0 0 0 0 0 0 0 0 0